                ,  2.047,  2.194,  2.342,  2.490,  2.638,  2.785,  2.933,  3.081,  3.229,  3.376,  3.524,  3.672,  3.819,  3.967,  4.115,  4.263,  4.410,  4.558,  4.706,  4.853,  5.001,  5.149,  5.297,  5.444,  5.592,  5.740,  5.888,  6.035,  6.183,  6.331,  6.478,  6.626,  6.774,  6.922,  7.069,  7.217,  7.365,  7.512,  7.660,  7.808,  7.956,  8.103,  8.251,  8.399,  8.547,  8.694,  8.842,  8.990,  9.137,  9.285,  9.433,  9.581,  9.728,  9.876, 10.024, 10.171, 10.319, 10.467, 10.615, 10.762, 10.910, 11.058, 11.205, 11.353, 11.501, 11.649, 11.796, 11.944, 12.092, 12.240, 12.387, 12.535, 12.683, 12.830, 12.978, 13.126, 13.274, 13.421, 13.569, 13.717, 13.864, 14.012, 14.160, 14.308, 14.455, 14.603, 14.751, 14.899, 15.046, 15.194, 15.342, 15.489, 15.637, 15.785, 15.933, 16.080, 16.228, 16.376, 16.523, 16.671, 16.819, 16.967, 17.114, 17.262, 17.410, 17.557, 17.705, 17.853, 18.001, 18.148, 18.296, 18.444, 18.592, 18.739, 18.887, 19.035, 19.182, 19.330, 19.478, 19.626
2015/05/11 00:00,  999.0,   -1.6,   -0.5,    1.7,    1.7,    2.3,    3.0,    3.5,    4.6,    5.8,    5.8,    5.0,    3.8,    2.2,    1.5,    1.5,    2.3,    3.5,    2.5,    1.8,    1.6,    2.2,    2.5,    1.5,    0.3,  999.0,   -2.0,   -1.1,   -0.8,    0.5,    0.9,  999.0,   -0.3,   -1.3,   -1.7,   -1.9,   -1.8,   -1.6,   -0.7,   -1.3,   -2.4,   -2.5,   -1.6,   -0.9,   -1.9,   -1.5,   -1.4,   -0.9,   -0.6,   -0.6,    0.1,   -0.1,   -0.3,   -0.1,    1.3,    0.4,    0.2,    0.4,    1.0,    0.7,    0.9,    0.7,    1.0,    0.4,    0.4,    0.1,   -0.5,  999.0,   -0.2,    0.1,   -0.5,   -0.8,   -1.2,   -0.4,  999.0,  999.0,  999.0,  999.0,  999.0,  999.0,  999.0,  999.0,  999.0,    0.2,  999.0,  999.0,  999.0,   -0.5,  999.0,  999.0,  999.0,  999.0,  999.0,  999.0,  999.0,  999.0,  999.0,  999.0,  999.0,  999.0,  999.0,  999.0,  999.0,  999.0,  999.0,  999.0,  999.0,  999.0,  999.0,  999.0,  999.0,  999.0,  999.0,  999.0,  999.0,  999.0,  999.0,  999.0,  999.0,  999.0
2015/05/11 00:10,   -2.2,   -0.9,   -1.0,   -0.0,   -1.1,    0.8,    2.1,    3.5,    4.1,    5.4,    5.1,    4.4,    3.4,    2.0,    1.6,    1.6,    2.2,    2.5,    1.5,    1.0,    1.3,    1.3,    1.3,    1.5,    0.5,   -0.7,   -1.6,   -0.8,   -0.8,    0.1,    0.3,   -0.8,   -1.4,   -1.6,   -2.6,   -2.1,   -1.5,   -1.4,   -1.3,   -1.9,   -2.8,   -2.9,   -1.5,   -0.8,   -1.9,   -2.2,   -1.4,   -1.2,   -0.4,   -0.4,   -0.8,   -0.0,   -0.1,   -0.2,    0.8,    0.9,    0.6,    0.2,    1.0,    0.6,    0.8,    0.9,    1.3,    0.5,    0.4,    0.2,   -0.5,   -0.5,    0.2,    0.4,   -0.3,   -0.6,   -1.1,   -0.6,   -0.6,   -0.8,    0.1,   -0.3,   -0.3,   -1.0,  999.0,  999.0,    0.1,    0.4,  999.0,  999.0,   -1.5,  999.0,  999.0,  999.0,  999.0,  999.0,  999.0,  999.0,  999.0,  999.0,  999.0,  999.0,  999.0,  999.0,  999.0,  999.0,  999.0,  999.0,  999.0,  999.0,  999.0,  999.0,  999.0,  999.0,  999.0,  999.0,  999.0,  999.0,  999.0,  999.0,  999.0,  999.0,  999.0,  999.0
2015/05/11 00:20,  999.0,   -1.1,   -1.9,   -0.4,   -1.5,    0.8,    1.9,    3.4,    4.2,    4.2,    4.6,    3.8,    2.9,    2.3,    1.7,    1.8,    2.3,    1.8,    1.4,    0.6,    1.0,    1.0,    0.9,    0.6,  999.0,   -0.8,   -0.5,   -0.3,   -0.6,   -0.5,   -0.1,   -0.3,   -1.4,   -1.3,   -2.3,   -1.2,   -0.8,   -0.9,   -1.0,   -1.7,   -2.6,   -3.3,   -1.3,   -0.6,   -1.5,   -1.9,   -1.4,   -1.3,   -0.3,   -0.2,   -0.4,   -0.0,   -0.1,   -0.0,    0.8,    0.5,   -0.2,    0.2,    1.2,    0.9,    0.8,    0.9,    1.7,    0.4,    0.3,    0.1,   -0.1,   -0.1,    0.1,    0.7,   -0.1,   -0.7,   -1.2,   -0.6,    0.1,   -0.4,    0.0,   -0.2,   -0.2,   -0.9,  999.0,  999.0,    0.3,    0.0,  999.0,  999.0,   -1.9,   -0.0,  999.0,  999.0,  999.0,  999.0,  999.0,  999.0,  999.0,  999.0,  999.0,  999.0,  999.0,  999.0,  999.0,  999.0,  999.0,  999.0,  999.0,  -10.2,  999.0,  999.0,  999.0,  999.0,  999.0,  999.0,  999.0,  999.0,  999.0,  999.0,  999.0,  999.0,  999.0,  999.0
2015/05/11 00:30,  999.0,   -0.8,   -0.1,    0.1,    0.4,    1.0,    2.3,    3.1,    2.9,    4.0,    3.4,    2.5,    2.4,    2.0,    1.6,    1.6,    2.4,    2.3,    2.4,    1.2,    1.6,    1.3,    1.5,    1.2,    0.2,   -0.4,   -0.3,    0.1,   -0.5,   -0.3,   -0.2,   -0.4,   -2.0,   -1.7,   -2.5,   -1.3,   -1.4,   -1.4,   -1.4,   -1.7,   -2.9,   -3.4,   -1.6,   -1.2,   -1.5,   -1.7,   -1.3,   -0.8,   -0.3,   -0.0,    0.0,    0.2,    0.2,    0.2,   -0.4,    0.3,    0.3,    0.0,    0.9,    1.1,    0.9,    0.4,    1.2,    0.3,    0.5,   -0.1,    0.1,   -0.1,   -0.0,    0.7,   -0.0,   -0.6,   -1.0,   -0.6,    0.1,   -0.3,    0.1,  999.0,   -0.4,    0.5,  999.0,  999.0,    0.0,   -0.2,   -0.2,  999.0,   -1.7,  999.0,  999.0,  999.0,  999.0,  999.0,  999.0,  999.0,   -0.1,  999.0,  999.0,  999.0,  999.0,  999.0,  999.0,  999.0,  999.0,  999.0,  999.0,  999.0,  999.0,  999.0,  999.0,  -14.4,  999.0,  999.0,  999.0,  999.0,  999.0,  999.0,  999.0,  999.0,  999.0,  999.0
2015/05/11 00:40,  999.0,   -0.9,    0.1,    0.7,    1.3,    1.7,    2.5,    2.9,    2.6,    3.6,    2.2,    2.0,    2.0,    1.7,    1.7,    2.1,    2.3,    2.2,    2.2,    1.2,    1.6,    1.9,    2.5,    2.2,    1.2,    0.4,    0.2,    0.4,  999.0,  999.0,    0.0,   -0.8,   -2.4,   -2.1,   -2.8,   -2.0,   -2.0,   -2.1,   -2.4,   -2.0,   -3.0,   -3.7,   -2.1,   -1.3,   -1.3,   -1.5,   -1.4,   -0.7,   -0.4,   -0.3,   -1.0,    0.3,    0.6,    0.1,   -0.1,    0.8,    0.5,   -0.1,   -0.4,    0.6,    0.4,    0.4,    0.4,    0.1,    0.4,    0.1,    0.2,   -0.3,    0.1,    1.0,    0.0,   -0.1,   -0.8,   -0.2,   -0.3,   -0.2,    0.2,   -0.8,    0.2,  999.0,  999.0,  999.0,   -0.4,    0.3,   -0.2,  999.0,   -0.2,   -0.9,  999.0,  999.0,  999.0,  999.0,  999.0,  999.0,   -3.2,  999.0,  999.0,  999.0,  999.0,  999.0,  999.0,  999.0,  999.0,  999.0,  999.0,  999.0,  999.0,  -18.2,  -17.6,  -14.6,  -15.4,  -13.0,  999.0,  999.0,  999.0,  999.0,  999.0,  999.0,  999.0,  999.0
2015/05/11 00:50,  999.0,   -1.4,   -0.2,    0.9,    1.7,    2.7,    3.3,    3.6,    2.8,    3.5,    2.8,    1.6,    1.7,    2.1,    1.6,    2.0,    2.1,    2.1,    2.1,    0.9,    1.8,    2.1,    2.3,    3.0,    1.9,    0.3,    0.1,   -0.0,  999.0,    0.1,   -0.0,   -1.5,   -2.5,   -2.4,   -3.0,   -2.4,   -2.2,   -2.5,   -2.7,   -2.3,   -2.9,   -3.5,   -1.9,   -1.1,   -1.2,   -0.8,   -0.7,   -0.6,   -0.3,   -0.3,   -1.5,    0.5,    0.5,    0.6,    0.7,    1.0,    0.1,    0.2,  999.0,    0.7,    0.5,    0.7,    0.6,    0.0,    0.1,    0.2,    0.4,   -0.2,    0.1,    0.8,    0.1,   -0.2,   -0.4,   -0.2,   -0.0,   -0.1,   -0.0,   -0.4,    0.4,   -0.3,  999.0,  999.0,   -0.3,    0.3,   -0.1,  999.0,    0.2,   -0.8,  999.0,  999.0,  999.0,   -0.5,  999.0,  999.0,   -1.6,  999.0,  999.0,  999.0,  999.0,  999.0,  999.0,  999.0,  999.0,  999.0,  999.0,  999.0,  999.0,  -18.2,  -18.1,  -15.0,  999.0,  999.0,  999.0,  999.0,  999.0,  999.0,  999.0,  999.0,  999.0,  999.0
2015/05/11 01:00,   -2.8,   -1.7,   -0.1,    0.8,    1.5,    1.9,    3.0,    3.5,    3.5,    4.1,    2.7,    1.7,    1.8,    2.6,    2.3,    1.8,    2.4,    2.1,    1.8,    0.7,    1.8,    2.0,    1.8,    1.7,    0.8,   -0.1,   -0.1,    0.3,    0.1,    0.2,   -0.0,   -1.4,   -1.9,   -2.3,   -2.9,   -2.2,   -1.8,   -2.4,   -1.9,   -2.2,   -2.4,   -3.0,   -2.1,   -1.0,   -1.2,   -1.2,   -0.6,   -0.2,    0.3,   -0.4,   -1.1,    0.3,   -0.4,    0.5,    0.3,    0.3,    0.2,   -0.1,  999.0,    0.6,    0.5,    0.8,    0.7,    0.1,    0.4,   -0.0,    0.8,    0.2,   -0.0,    0.4,   -0.1,   -0.3,   -0.8,   -0.4,   -0.3,   -0.1,    0.1,   -0.2,    0.1,   -0.2,  999.0,   -1.3,   -0.0,    0.6,   -0.1,  999.0,    0.3,   -1.4,  999.0,  999.0,  999.0,  999.0,  999.0,  999.0,   -0.5,  999.0,  999.0,  999.0,  999.0,  999.0,  999.0,  999.0,  999.0,  999.0,  999.0,  999.0,  999.0,  -18.2,  -18.0,  -15.6,  999.0,  999.0,  999.0,  999.0,  999.0,  999.0,  999.0,  999.0,  999.0,  999.0
2015/05/11 01:10,  999.0,   -0.6,  999.0,   -1.0,    0.8,    2.1,    3.3,    3.4,    3.8,    3.9,    2.8,    1.8,    2.1,    2.4,    2.1,    2.0,    1.4,    1.9,    1.3,    1.4,    2.2,    1.8,    1.4,    1.0,    0.3,   -0.2,    0.2,    0.2,    0.3,    0.7,   -0.4,   -1.2,   -2.4,   -2.1,   -2.4,   -2.6,   -1.7,   -1.8,   -1.0,   -1.6,   -1.7,   -2.5,   -1.6,   -1.3,   -1.1,   -1.2,   -0.5,    0.1,    0.1,   -0.5,   -0.8,   -0.1,   -0.6,  999.0,   -0.7,  999.0,    0.1,   -0.8,   -0.3,    0.2,    0.4,    0.2,    0.4,    0.3,    0.5,    0.6,    0.2,   -0.1,   -0.2,    0.5,   -0.1,   -0.2,   -0.9,   -0.8,   -0.4,    0.1,   -0.1,  999.0,   -0.5,  999.0,   -1.7,   -0.9,   -0.1,    0.2,   -0.4,  999.0,   -0.0,   -1.3,  999.0,  999.0,  999.0,  999.0,  999.0,  999.0,  999.0,  999.0,  999.0,  999.0,   -4.9,  -11.1,  999.0,  999.0,  -16.4,  999.0,  999.0,  999.0,  999.0,  -17.9,  -17.7,  -14.7,  -13.6,  999.0,  999.0,  999.0,  999.0,  999.0,  999.0,  999.0,  999.0,  999.0
2015/05/11 01:20,  999.0,    0.3,  999.0,    0.8,    2.1,    2.2,    2.8,    2.9,    2.6,    2.3,    3.2,    2.4,    2.7,    3.4,    3.7,    3.3,    2.5,    2.2,    1.9,    1.6,    1.6,    1.3,    1.0,    1.0,    0.3,  999.0,    0.1,    0.3,    0.4,    0.9,   -0.6,   -1.7,   -2.8,   -2.7,   -2.8,   -3.2,   -2.2,   -1.7,   -1.0,   -1.7,   -1.7,   -2.6,   -2.0,   -1.3,   -1.5,   -1.4,   -0.6,   -0.0,    0.4,   -0.0,    0.0,   -0.0,    0.7,    0.5,    0.3,    0.8,   -0.0,   -0.4,  999.0,    0.2,    0.4,    0.0,    0.3,    0.6,    0.5,    0.7,   -0.3,   -0.3,   -0.1,   -0.5,   -0.3,   -0.5,   -1.9,   -1.4,   -0.7,   -0.6,    0.4,  999.0,   -0.4,  999.0,  999.0,  999.0,   -0.0,    0.0,  999.0,  999.0,   -0.9,  999.0,   -0.8,  999.0,  999.0,  999.0,  999.0,  999.0,  999.0,  999.0,  999.0,  999.0,  999.0,  999.0,  999.0,  999.0,  999.0,  999.0,  999.0,  999.0,  999.0,  999.0,  -18.1,  -15.3,  999.0,  999.0,  999.0,  999.0,  999.0,  999.0,  999.0,  999.0,  999.0,  999.0
2015/05/11 01:30,  999.0,    1.4,    1.7,    2.6,    2.8,    3.0,    2.9,    3.4,    3.3,    2.4,    3.6,    3.1,    2.9,    3.7,    3.7,    3.5,    2.3,    2.7,    2.9,    1.8,    2.3,    2.0,    2.4,    1.8,    0.8,    1.0,    0.7,    0.2,    0.3,    0.6,   -0.2,   -2.9,   -1.9,   -2.5,   -3.1,   -3.2,   -2.6,   -1.7,   -2.2,   -1.9,   -1.5,   -2.8,   -2.0,   -1.6,   -2.5,   -2.4,   -0.7,   -0.8,    0.0,   -0.7,    0.4,   -0.8,   -0.3,    1.0,    0.5,   -1.5,    0.1,   -2.0,  999.0,   -0.3,    0.2,   -1.7,   -0.1,    0.6,   -0.4,    1.3,   -1.0,    1.6,   -2.5,   -1.2,   -2.5,    0.8,   -1.1,   -1.1,   -0.5,    1.2,    0.4,  999.0,  999.0,  999.0,   -1.8,  999.0,   -0.5,   -2.0,  999.0,  999.0,  999.0,  999.0,  999.0,  999.0,  999.0,  999.0,  999.0,  999.0,   -3.0,  999.0,  999.0,  999.0,  999.0,  999.0,  999.0,  999.0,  999.0,  999.0,  999.0,  999.0,  999.0,  999.0,  999.0,  -15.4,  999.0,  999.0,  999.0,  999.0,  999.0,  999.0,  999.0,  999.0,  999.0,  999.0
2015/05/11 01:40,  999.0,    0.2,  999.0,  999.0,    2.7,    2.9,    3.3,    3.3,    3.4,    3.7,    3.8,    3.2,    3.4,    3.2,    3.2,    3.2,    3.2,    3.1,    3.3,    3.0,    2.8,    3.0,    3.3,    3.1,    2.8,    2.3,    1.7,    1.2,    0.6,    1.4,   -1.2,   -2.9,   -2.9,   -3.2,  999.0,   -3.2,   -2.1,   -2.3,   -2.7,   -3.6,   -2.0,   -2.9,   -3.0,   -2.6,   -3.2,   -2.4,   -2.4,   -0.9,    0.4,   -1.6,   -0.1,   -0.7,  999.0,    0.6,  999.0,  999.0,   -0.5,    0.2,  999.0,    1.0,    0.4,  999.0,  999.0,    0.9,    1.1,    1.0,    1.5,    0.9,   -4.6,   -1.7,  999.0,    0.7,    0.8,   -2.1,   -1.4,    0.6,    0.1,  999.0,  999.0,  999.0,  999.0,  999.0,   -0.7,   -1.8,  999.0,  999.0,  999.0,  999.0,  999.0,  999.0,  999.0,  999.0,  999.0,  999.0,   -4.4,  999.0,  999.0,  999.0,  999.0,  999.0,  999.0,  -13.9,  999.0,  999.0,  999.0,  999.0,  999.0,  999.0,  -14.5,  -13.9,  999.0,  999.0,  999.0,  999.0,  999.0,  999.0,  999.0,  999.0,  999.0,  999.0
2015/05/11 01:50,  999.0,  999.0,  999.0,    0.4,    1.0,    2.0,    3.0,    3.2,    3.8,    3.7,    3.2,    2.5,    3.3,    3.2,    2.8,    2.9,    3.1,    3.3,    3.1,    2.7,    2.3,    1.9,    2.1,    2.6,    1.3,    1.2,    0.9,    0.6,    0.1,    0.1,   -0.2,   -1.8,   -1.8,   -1.8,   -1.3,   -2.5,   -1.4,   -1.3,   -2.1,   -2.3,   -2.0,   -2.6,   -2.8,   -0.9,   -1.1,   -1.2,   -0.9,   -0.7,    0.2,   -0.6,   -0.5,   -0.1,    0.0,    0.6,   -0.2,    0.3,   -0.7,   -0.7,  999.0,   -0.0,    0.4,    0.2,    0.9,    0.3,    0.7,    0.7,    1.1,    1.0,    0.0,   -0.4,   -0.0,   -0.1,   -0.4,   -0.8,   -0.6,   -0.4,   -0.3,   -0.2,   -2.0,  999.0,  999.0,  999.0,   -0.3,   -0.4,   -0.6,  999.0,  999.0,  999.0,  999.0,  999.0,  999.0,  999.0,  999.0,  999.0,  999.0,  999.0,  999.0,  999.0,  999.0,  999.0,  999.0,  999.0,  999.0,  999.0,  999.0,  999.0,  999.0,  999.0,  -15.3,  -13.5,  999.0,  999.0,  999.0,  999.0,  999.0,  999.0,  999.0,  999.0,  999.0,  999.0
2015/05/11 02:00,  999.0,  999.0,    0.3,    1.3,    0.7,    1.6,    2.6,    2.5,    2.6,    2.8,    3.2,    1.8,    2.8,    2.8,    2.5,    2.8,    2.7,    3.1,    2.6,    1.8,    1.5,    1.3,    1.9,    1.9,    1.4,    1.4,    1.3,    1.2,    0.6,    0.5,    0.1,   -1.0,   -1.1,   -1.2,   -1.6,   -2.1,   -1.1,   -1.4,   -2.2,   -2.1,   -1.8,   -2.8,   -2.9,   -1.0,   -0.8,   -1.4,   -1.0,   -0.7,    0.0,   -0.7,  999.0,   -0.8,   -0.5,  999.0,    0.3,    0.1,   -0.5,   -0.8,   -1.3,  999.0,    0.2,    0.7,    0.4,    0.5,    1.3,    0.7,    0.5,    1.1,    0.1,    0.1,   -0.0,   -0.0,   -0.7,   -0.8,   -0.5,   -0.5,   -0.0,  999.0,    0.0,    0.1,  999.0,  999.0,  999.0,    0.6,   -0.2,  999.0,  999.0,  999.0,  999.0,  999.0,  999.0,  999.0,  999.0,  999.0,  999.0,  999.0,  999.0,  999.0,  999.0,  999.0,  999.0,  999.0,  999.0,  -22.1,  999.0,  999.0,  999.0,  999.0,  -15.0,  -17.4,  999.0,  999.0,  999.0,  999.0,  999.0,  999.0,  999.0,  999.0,  999.0,  999.0
2015/05/11 02:10,  999.0,   -0.8,    0.4,    1.5,    0.7,    1.8,    2.1,    2.1,    2.1,    2.0,    2.9,    1.8,    2.8,    3.1,    2.5,    2.2,    2.7,    2.8,    2.2,    2.1,    1.7,    2.0,    2.1,    2.2,    1.0,    1.4,    1.2,    0.5,    0.7,    0.6,    0.0,   -0.7,   -1.3,   -1.7,   -2.4,   -2.5,   -1.4,   -1.8,   -2.4,   -2.1,   -2.0,   -3.3,   -3.5,   -1.2,   -1.0,   -1.6,   -1.0,   -0.5,    0.0,   -0.5,  999.0,   -0.7,   -0.0,  999.0,    0.8,    0.3,   -0.6,   -1.1,   -1.0,    0.3,   -0.1,  999.0,    0.2,    0.4,    1.2,    1.8,    0.7,    1.0,    0.6,    0.1,   -0.0,    0.2,   -0.4,   -0.9,   -0.4,   -0.1,   -0.2,  999.0,   -0.6,   -0.3,  999.0,  999.0,   -1.2,    0.7,  999.0,  999.0,  999.0,  999.0,  999.0,  999.0,  999.0,  999.0,  999.0,  999.0,  999.0,  999.0,  999.0,  999.0,  999.0,  999.0,  999.0,  999.0,  999.0,  999.0,  999.0,  -22.6,  999.0,  999.0,  999.0,  -17.2,  999.0,  999.0,  999.0,  999.0,  999.0,  999.0,  999.0,  999.0,  999.0,  999.0
2015/05/11 02:20,  999.0,  999.0,   -0.1,    0.5,    0.9,    1.4,    2.1,    2.7,    2.3,    2.2,    2.9,    2.3,    2.8,    2.9,    2.8,    2.8,    3.0,    2.8,    2.5,    2.2,    2.1,    2.3,    2.3,    2.1,    1.1,    0.7,    0.6,    0.2,    0.1,    0.3,   -0.1,   -0.9,   -1.7,   -2.2,   -2.7,   -2.7,   -1.9,   -1.8,   -2.7,   -2.3,   -2.1,   -3.1,   -3.3,   -1.5,   -1.2,   -1.6,   -1.1,   -0.2,    0.3,   -0.0,  999.0,   -0.3,    0.2,   -0.0,    0.7,   -0.1,   -0.0,   -0.5,   -1.5,    0.2,   -0.5,   -0.2,    0.2,    0.3,    1.1,    1.1,    1.1,    1.1,    0.4,    0.6,    0.2,    0.0,   -0.5,   -0.1,   -0.3,   -0.1,    0.0,  999.0,   -1.0,  999.0,  999.0,  999.0,   -0.4,    0.1,   -0.1,  999.0,  999.0,  999.0,  999.0,  999.0,  999.0,  999.0,  999.0,  999.0,   -1.2,  999.0,  999.0,  999.0,  999.0,  999.0,  999.0,  999.0,  999.0,  999.0,  999.0,  999.0,  999.0,  999.0,  999.0,  999.0,  999.0,  999.0,  999.0,  999.0,  999.0,  999.0,  999.0,  999.0,  999.0,  999.0
2015/05/11 02:30,  999.0,  999.0,  999.0,    0.2,    0.8,    1.5,    2.2,    3.0,    1.6,    2.2,    2.3,    2.3,    2.3,    2.6,    2.7,    2.8,    2.7,    2.6,    2.4,    2.0,    2.2,    2.3,    1.9,    2.0,    1.1,    0.5,  999.0,   -0.4,   -0.3,   -0.5,   -0.7,   -1.2,   -2.5,   -2.6,   -2.9,   -2.9,   -1.6,   -1.8,   -2.2,   -2.3,   -2.1,   -2.9,   -2.9,   -1.5,   -1.3,   -1.6,   -1.4,   -0.1,    0.4,    0.3,  999.0,   -0.0,    0.1,    0.2,    0.5,   -0.2,   -0.1,   -0.7,   -0.6,   -0.1,   -0.4,  999.0,    0.2,    0.4,    0.5,    0.7,    1.0,    0.8,   -0.1,    0.4,    0.1,   -0.2,   -0.8,   -0.3,  999.0,   -0.2,   -0.1,   -0.7,   -1.0,   -0.1,  999.0,  999.0,   -0.0,   -0.1,   -0.5,  999.0,  999.0,  999.0,  999.0,  999.0,  999.0,  999.0,  999.0,  999.0,   -0.0,  999.0,  999.0,  999.0,  999.0,  999.0,  999.0,  999.0,  999.0,  999.0,  999.0,  -22.5,  999.0,  999.0,  -15.7,  999.0,  999.0,  999.0,  999.0,  999.0,  999.0,  999.0,  999.0,  999.0,  999.0,  999.0
2015/05/11 02:40,  999.0,  999.0,  999.0,    0.4,    0.7,    1.8,    2.1,    2.8,    1.9,    1.9,    2.3,    2.2,    2.6,    2.3,    2.6,    2.0,    2.4,    2.4,    2.5,    2.3,    2.2,    3.0,    2.2,    2.6,    1.3,    0.9,    0.6,    0.2,   -0.7,   -1.2,   -0.8,   -1.3,   -2.1,   -2.3,   -2.4,   -2.7,   -1.8,   -1.9,   -1.9,   -2.7,   -2.1,   -2.8,   -2.9,   -1.4,   -1.3,   -2.0,   -1.1,   -0.5,    0.3,    0.3,  999.0,    0.2,    0.0,  999.0,    0.4,    0.6,   -0.6,   -0.6,   -0.8,   -0.3,    0.1,   -0.8,    0.7,    0.6,    0.8,    0.7,    0.5,    0.7,   -0.1,    0.2,   -0.0,   -0.5,   -0.7,   -0.5,    0.4,   -0.2,    0.1,   -1.1,   -0.8,   -2.3,  999.0,  999.0,   -0.5,    0.0,   -0.3,  999.0,  999.0,  999.0,  999.0,  999.0,  999.0,  999.0,  999.0,  999.0,    0.2,  999.0,  999.0,  999.0,  999.0,  999.0,  999.0,  999.0,  999.0,  999.0,  999.0,  999.0,  999.0,  -18.5,  -16.1,  -14.4,  999.0,  999.0,  999.0,  999.0,  999.0,  999.0,  999.0,  999.0,  999.0,  999.0
2015/05/11 02:50,   -0.2,   -0.1,  999.0,   -5.4,    0.6,    1.6,    2.0,    2.4,    1.6,    1.5,    2.5,    1.8,    2.1,    2.0,    2.2,    1.8,    2.0,    2.7,    2.3,    2.2,    2.0,    2.8,    2.2,    2.6,    2.3,    1.0,    0.6,    0.3,   -0.8,   -0.9,   -0.7,   -1.5,   -2.1,   -2.3,   -2.0,   -1.8,   -2.1,   -2.6,   -2.5,   -2.7,   -2.2,   -3.1,   -2.4,   -0.9,   -1.7,   -1.8,   -1.0,   -0.4,    0.1,    0.2,   -0.1,    0.4,    0.3,    0.5,    0.8,    0.2,   -0.9,   -0.3,   -0.8,    0.2,   -0.0,   -0.3,    0.7,    0.6,    1.1,    0.9,    0.5,    0.9,    0.1,    0.1,   -0.1,   -0.5,   -0.7,   -0.1,    0.3,   -0.2,    0.2,  999.0,   -0.4,   -2.2,  999.0,   -0.3,    0.2,    0.1,    0.1,  999.0,  999.0,  999.0,  999.0,  999.0,  999.0,  999.0,  999.0,  999.0,  999.0,  999.0,  999.0,  999.0,  999.0,  999.0,  999.0,  999.0,  -19.4,  999.0,  999.0,  -22.3,  999.0,  -19.2,  -16.3,  999.0,  999.0,  999.0,  999.0,  999.0,  999.0,  999.0,  999.0,  999.0,  999.0,  999.0
2015/05/11 03:00,    0.2,    0.3,    2.4,   -2.0,    0.8,    1.7,    2.0,    2.2,    1.4,    2.1,    2.8,    1.9,    1.9,    2.0,    2.1,    1.9,    2.3,    2.5,    2.1,    2.1,    1.8,    1.9,    1.9,    1.7,    1.8,    0.8,  999.0,   -0.1,   -0.8,   -0.5,   -0.4,   -1.5,   -2.0,   -1.8,   -2.4,   -1.8,   -2.1,   -2.3,   -2.8,   -2.6,   -2.7,   -3.0,   -2.1,   -1.1,   -1.3,   -2.0,   -0.8,   -0.1,    0.1,   -0.8,    0.2,   -0.2,    0.6,    0.5,    0.4,   -0.2,   -0.4,   -0.2,   -0.4,   -0.1,   -0.2,    0.0,    0.8,    0.5,    0.6,    0.8,    0.5,    0.6,   -0.0,    0.2,   -0.4,   -0.3,   -1.1,  999.0,    0.2,   -0.2,    0.0,  999.0,    0.0,  999.0,  999.0,  999.0,   -0.0,    0.3,    0.2,  999.0,  999.0,  999.0,  999.0,  999.0,  999.0,  999.0,  999.0,  999.0,   -1.4,  999.0,  999.0,  999.0,  999.0,  999.0,  999.0,  999.0,  999.0,  999.0,  999.0,  -23.6,  999.0,  -20.2,  -17.4,  999.0,  999.0,  999.0,  999.0,  999.0,  999.0,  999.0,  999.0,  999.0,  999.0,  999.0
2015/05/11 03:10,    0.2,    0.1,    3.4,   -1.7,    0.7,    1.3,    2.0,    1.9,    0.9,    2.3,    3.0,    2.2,    1.5,    1.8,    1.9,    2.0,    2.3,    2.7,    2.3,    2.6,    2.2,    2.0,    1.9,    1.8,    1.1,    0.9,    1.0,   -0.0,   -0.5,   -0.3,   -1.1,   -2.0,   -2.1,   -2.2,   -2.5,   -1.5,   -1.6,   -2.4,   -2.7,   -2.1,   -2.5,   -2.4,   -1.4,   -0.7,   -1.3,   -1.0,   -0.6,    0.1,    0.1,   -0.5,    0.3,   -0.1,    0.4,    0.9,    0.2,   -0.1,   -0.3,   -0.1,  999.0,   -0.1,   -0.5,    0.4,    1.1,    0.7,    0.7,    1.4,  999.0,    0.8,   -0.2,   -0.1,   -0.9,   -0.3,   -0.4,   -0.2,   -0.7,   -0.3,   -0.3,  999.0,    0.1,  999.0,  999.0,  999.0,   -0.7,    0.3,    0.2,  999.0,  999.0,  999.0,  999.0,  999.0,  999.0,  999.0,  999.0,  999.0,  999.0,  999.0,  999.0,  999.0,  999.0,  999.0,  999.0,  999.0,  999.0,  999.0,  999.0,  999.0,  -19.7,  999.0,  -16.6,  999.0,  999.0,  999.0,  999.0,  999.0,  999.0,  999.0,  999.0,  999.0,  999.0,  999.0
2015/05/11 03:20,   -0.1,    0.1,    1.9,    0.5,   -0.4,    0.8,    2.0,    1.7,    0.9,    2.1,    3.0,    2.6,    2.3,    1.9,    1.6,    2.3,    2.7,    2.4,    2.2,    2.7,    2.0,    1.9,    1.4,    1.6,    1.6,    1.0,    0.8,    0.3,   -0.4,   -0.2,   -1.0,   -1.6,   -1.7,   -1.8,   -1.7,   -1.1,   -1.1,   -1.9,   -2.2,   -2.2,   -2.9,   -2.6,   -1.5,   -0.8,   -1.7,   -0.9,   -0.6,   -0.8,   -0.2,   -0.1,  999.0,  999.0,   -0.1,    0.3,   -0.0,   -0.4,   -0.6,    0.1,  999.0,    0.0,    0.4,    0.7,    0.8,    0.6,    0.9,    0.8,    0.3,    0.8,   -0.1,    0.5,   -0.3,   -0.3,   -0.4,   -0.2,   -0.5,   -0.4,   -0.1,  999.0,    0.1,  999.0,  999.0,  999.0,  999.0,    0.2,    0.4,  999.0,  999.0,   -0.6,  999.0,  999.0,  999.0,   -3.4,  999.0,  999.0,  999.0,  999.0,  999.0,  999.0,  999.0,  999.0,  999.0,  999.0,  999.0,  999.0,  999.0,  999.0,  999.0,  999.0,  999.0,  999.0,  999.0,  999.0,  999.0,  -11.5,  999.0,  999.0,  999.0,  999.0,  999.0,  999.0
2015/05/11 03:30,   -0.1,    0.2,    0.2,    0.3,    0.1,    0.3,    1.7,    1.6,    1.1,    2.0,    2.6,    2.5,    1.7,    1.5,    1.6,    2.2,    2.6,    2.0,    1.8,    2.2,    1.9,    1.8,    1.2,    1.2,    1.1,    0.3,    0.5,    0.0,   -0.7,  999.0,   -1.0,   -1.5,   -1.2,   -1.3,   -1.1,   -0.6,   -1.2,   -1.6,   -2.0,   -2.0,   -3.3,   -2.5,   -1.6,   -1.0,   -1.7,   -1.4,   -0.7,   -0.5,   -0.1,    0.3,    0.3,  999.0,    0.3,    0.2,   -0.5,   -0.2,   -0.6,    0.1,  999.0,   -0.4,    0.8,    0.5,    0.4,    0.2,    0.6,    0.6,    0.3,    0.3,    0.2,    0.3,    0.0,   -0.1,   -0.7,  999.0,   -0.2,    0.0,   -0.2,  999.0,   -1.9,  999.0,   -1.3,   -1.3,  999.0,   -0.1,  999.0,  999.0,  999.0,    0.1,  999.0,  999.0,  999.0,   -2.3,  999.0,  999.0,  999.0,  999.0,  999.0,  999.0,  999.0,   -3.0,  999.0,  999.0,  999.0,  999.0,   -0.4,  999.0,  999.0,  999.0,  999.0,  999.0,  999.0,  999.0,  999.0,  999.0,  999.0,  999.0,  999.0,  999.0,  999.0,  999.0
2015/05/11 03:40,   -0.2,    0.0,   -0.1,   -0.5,    0.3,    0.6,    2.2,    2.3,    1.6,    1.6,    2.4,    2.0,    1.2,    1.4,    1.7,    2.2,    2.6,    2.6,    2.0,    2.1,    2.0,    1.4,    1.5,    1.8,    1.1,    0.4,    0.1,  999.0,   -1.2,   -0.4,   -1.0,   -1.5,   -1.8,   -1.6,   -1.4,   -1.0,   -2.0,   -1.4,   -2.1,   -1.9,   -2.9,   -1.8,   -1.3,   -0.9,   -1.5,   -1.0,   -0.2,    0.0,   -0.2,    0.1,   -0.2,   -0.3,    0.3,    0.5,   -0.2,   -0.2,   -0.6,   -0.3,  999.0,   -0.1,    1.9,    0.5,    0.4,    0.1,    0.6,    0.7,    0.2,    0.3,   -0.2,   -0.2,    0.0,   -0.1,    0.2,    0.4,   -0.1,   -0.2,   -0.5,  999.0,   -1.8,  999.0,   -0.8,  999.0,  999.0,   -0.3,  999.0,  999.0,  999.0,   -0.3,  999.0,  999.0,  999.0,  999.0,  999.0,  999.0,  999.0,   -1.7,  999.0,  999.0,  999.0,  999.0,  999.0,  999.0,  999.0,  999.0,  999.0,  999.0,  999.0,  -19.4,  999.0,  999.0,  999.0,  999.0,  999.0,  999.0,  999.0,  999.0,  999.0,  999.0,  999.0,  999.0
2015/05/11 03:50,  999.0,    0.5,    0.5,    0.4,    0.6,    0.8,    2.4,    2.7,    2.2,    1.2,    2.2,    1.7,    0.8,    1.2,    1.5,    2.1,    2.8,    2.8,    2.3,    1.9,    2.0,    1.1,    1.6,    1.6,    1.1,    0.2,    0.1,   -0.8,   -1.4,   -0.5,   -0.7,   -1.1,   -1.9,   -1.9,   -1.2,   -1.1,   -2.6,   -2.2,   -2.3,   -2.2,   -2.6,   -1.7,   -1.0,   -1.1,   -1.8,   -1.1,   -0.3,   -0.2,   -0.5,   -0.2,   -0.1,  999.0,    0.3,    0.4,   -0.4,   -0.7,   -0.5,   -0.8,  999.0,   -0.0,    0.1,    0.5,    0.7,    0.3,    0.7,    0.8,    0.0,  999.0,   -0.5,   -0.2,   -0.2,   -0.1,    0.2,    0.8,  999.0,   -0.4,   -0.2,  999.0,   -1.7,  999.0,  999.0,  999.0,  999.0,   -0.2,  999.0,  999.0,  999.0,  999.0,  999.0,  999.0,  999.0,  999.0,  999.0,  999.0,   -1.1,   -1.6,  999.0,  999.0,  999.0,  999.0,  999.0,  999.0,  999.0,  999.0,  999.0,  -11.8,  999.0,  -19.3,  -17.2,  999.0,  999.0,  999.0,  999.0,  999.0,  999.0,  999.0,  999.0,  999.0,  999.0,  999.0
2015/05/11 04:00,   -0.1,    0.6,    1.1,    1.0,    0.6,    0.7,    2.3,    2.6,    1.8,    1.1,    2.4,    1.6,    1.1,    1.4,    2.0,    2.6,    2.7,    2.7,    2.7,    1.5,    2.3,    1.1,    2.0,    1.4,    0.9,    0.1,   -0.2,   -1.2,   -1.4,   -0.6,   -0.6,   -1.5,   -1.6,   -2.2,   -1.7,   -1.5,   -3.6,   -2.8,   -2.5,   -2.4,   -2.5,   -1.7,   -0.8,   -1.4,   -1.8,   -1.1,   -0.3,   -0.3,   -0.2,   -0.0,   -0.7,  999.0,   -0.5,   -0.1,   -0.9,   -1.0,   -0.8,   -0.8,   -0.9,   -0.5,    0.1,    0.4,    0.7,    0.3,    0.4,    0.4,    0.2,  999.0,   -0.3,   -0.1,   -0.3,   -0.2,    0.1,  999.0,  999.0,   -0.3,   -0.3,  999.0,   -1.5,  999.0,  999.0,  999.0,  999.0,    0.1,    0.5,  999.0,  999.0,  999.0,  999.0,  999.0,  999.0,  999.0,  999.0,   -4.7,  999.0,  999.0,  999.0,  999.0,  999.0,  999.0,  999.0,  999.0,  999.0,  999.0,  999.0,  999.0,  999.0,  -18.9,  999.0,  999.0,  999.0,  999.0,  999.0,  999.0,  999.0,  999.0,  999.0,  999.0,  999.0,  999.0
2015/05/11 04:10,    0.2,   -0.5,    1.5,    1.3,    1.3,    1.1,    2.6,    2.7,    2.3,    1.8,    2.9,    2.3,    1.6,    1.2,    2.0,    3.5,    2.8,    2.6,    2.2,    1.1,    2.0,    1.2,    1.7,    1.3,    0.9,   -0.1,   -0.6,   -1.0,   -1.2,   -0.9,   -1.0,  999.0,   -1.7,   -2.4,   -2.2,   -2.1,   -3.7,   -2.9,   -2.8,   -2.8,   -3.2,   -1.8,   -1.1,   -1.9,   -2.4,   -1.1,   -0.1,   -0.6,   -0.5,   -0.8,  999.0,   -0.5,  999.0,   -0.3,   -0.8,   -0.9,   -0.8,   -0.3,   -0.3,   -0.6,   -0.0,    0.1,    0.6,    0.2,    0.3,    0.5,    0.1,   -0.8,   -0.5,   -0.7,   -0.9,  999.0,  999.0,  999.0,  999.0,   -0.3,   -0.5,  999.0,  999.0,  999.0,  999.0,  999.0,  999.0,    0.3,    0.4,  999.0,  999.0,  999.0,  999.0,  999.0,  999.0,  999.0,  999.0,  999.0,  999.0,  999.0,  999.0,  999.0,  999.0,  999.0,  999.0,  999.0,  999.0,  999.0,  999.0,  999.0,  999.0,  999.0,  999.0,  999.0,  999.0,  999.0,  999.0,  999.0,  999.0,  999.0,  999.0,  999.0,  999.0,  999.0
2015/05/11 04:20,   -1.0,  999.0,  999.0,    1.0,    1.0,    1.3,    1.7,    2.8,    3.0,    2.6,    2.3,    1.6,    1.0,    1.0,    1.9,    3.1,    2.6,    2.4,    1.0,    1.1,    0.5,    0.2,    0.6,    1.0,    1.1,    0.0,   -0.4,   -0.8,   -1.1,   -0.8,   -1.5,   -2.4,   -2.1,   -2.6,   -2.3,   -3.0,   -4.6,   -3.1,   -3.0,   -3.2,   -3.5,   -2.0,   -1.6,   -2.3,   -2.2,   -1.1,   -0.2,   -0.8,   -0.9,   -0.8,    0.6,   -0.5,    0.3,   -0.0,   -0.8,   -0.7,   -1.1,   -0.5,   -0.5,   -0.5,   -0.2,   -0.1,    0.6,    0.1,    0.3,    0.7,   -0.8,    0.0,   -0.7,   -0.6,   -0.9,   -0.1,  999.0,  999.0,  999.0,  999.0,   -0.8,  999.0,  999.0,  999.0,  999.0,  999.0,  999.0,    0.1,  999.0,  999.0,  999.0,  999.0,  999.0,  999.0,  999.0,  999.0,  999.0,  999.0,  999.0,  999.0,  999.0,  999.0,  999.0,  999.0,  999.0,  999.0,  999.0,  999.0,  999.0,  999.0,  999.0,  999.0,  999.0,  999.0,  999.0,  999.0,  999.0,  999.0,  999.0,  999.0,  999.0,  999.0,  999.0,  999.0
2015/05/11 04:30,  999.0,  999.0,    1.0,    0.8,  999.0,    1.0,    1.4,    1.5,    2.2,    2.6,    2.1,    1.3,    0.6,    0.7,    1.6,    2.1,    2.6,    2.4,    0.9,    0.3,    0.4,    0.2,    0.7,    0.8,    0.9,    0.0,   -0.7,   -0.7,   -1.3,   -0.7,   -1.5,   -1.7,   -2.0,   -2.5,   -2.3,   -4.1,   -5.5,   -3.7,   -3.2,   -3.1,   -3.3,   -1.5,   -1.3,   -2.2,   -2.1,   -1.0,   -0.4,   -0.4,   -0.3,   -0.1,    0.2,   -0.2,    0.4,    0.1,   -0.5,   -0.4,   -0.6,   -0.9,   -0.4,   -0.0,   -0.0,    0.6,    0.5,    0.5,    0.3,    0.4,   -0.7,   -0.8,   -0.6,   -0.4,   -0.6,  999.0,  999.0,  999.0,  999.0,   -0.9,   -0.1,   -0.8,  999.0,  999.0,  999.0,  999.0,   -0.6,    0.3,   -0.0,  999.0,  999.0,  999.0,  999.0,  999.0,  999.0,  999.0,  999.0,  999.0,  999.0,  999.0,  999.0,  999.0,  999.0,  999.0,  999.0,  999.0,  999.0,  999.0,  999.0,  999.0,  999.0,  999.0,  -18.4,  999.0,  999.0,  999.0,  999.0,  999.0,  999.0,  999.0,  999.0,  999.0,  999.0,  999.0
2015/05/11 04:40,  999.0,  999.0,  999.0,    0.3,    0.4,    0.8,    1.0,    1.0,    2.9,    2.9,    2.7,    2.0,    1.5,    1.0,    1.7,    2.4,    2.8,    2.2,    1.5,    0.1,    0.3,    0.3,    0.8,    0.6,    0.3,   -0.2,   -0.6,   -1.0,   -1.2,   -1.0,   -2.1,   -2.2,   -2.3,   -2.7,   -2.3,   -4.2,   -5.2,   -3.7,   -3.5,   -3.1,   -2.8,   -1.3,   -1.1,   -2.2,   -2.1,   -0.7,   -0.9,   -1.3,    0.2,   -0.4,   -0.2,    0.3,   -0.3,   -0.1,   -0.5,   -0.1,   -0.3,   -0.9,    0.1,    0.7,    0.2,    0.4,    0.3,    0.4,    0.3,   -0.1,   -0.3,  999.0,   -0.4,   -0.5,   -0.7,   -1.0,   -1.3,   -0.4,  999.0,   -0.6,   -0.2,    0.0,  999.0,    2.8,  999.0,  999.0,    1.3,    0.0,   -0.3,  999.0,  999.0,  999.0,  999.0,  999.0,  999.0,  999.0,  999.0,  999.0,  999.0,  999.0,  999.0,  999.0,  999.0,  999.0,  999.0,  999.0,  999.0,  999.0,  999.0,  999.0,  999.0,  -18.1,  -18.9,  999.0,  999.0,  999.0,  999.0,  999.0,  999.0,  999.0,  999.0,  999.0,  999.0,  999.0
2015/05/11 04:50,  999.0,  999.0,   -0.3,   -0.3,  999.0,    0.8,    1.0,    1.7,    3.0,    2.7,    3.1,    2.2,    1.5,    1.0,    1.7,    2.7,    2.6,    2.3,    1.4,    0.2,    0.2,    0.4,    0.8,    0.5,    0.4,   -0.3,   -0.6,   -0.7,   -0.7,   -1.0,   -1.6,   -1.9,   -2.1,   -2.5,   -2.3,   -4.4,   -4.6,   -4.1,   -3.0,   -3.0,   -1.8,   -1.5,   -1.9,   -3.0,   -2.8,   -1.0,   -2.4,   -1.5,   -0.4,    0.5,   -0.5,  999.0,   -0.6,   -0.3,   -0.5,   -0.4,   -0.5,   -0.4,    0.5,    0.9,    0.2,    0.4,    0.8,    0.3,    0.4,   -0.4,   -0.4,   -0.6,   -0.0,   -0.1,   -0.8,   -0.8,  999.0,   -0.2,   -1.2,  999.0,    0.5,    0.3,   -3.0,  999.0,  999.0,  999.0,  999.0,    0.0,   -0.4,  999.0,  999.0,  999.0,  999.0,  999.0,  999.0,  999.0,  999.0,  999.0,  999.0,  999.0,  999.0,  999.0,  999.0,  999.0,  999.0,  999.0,  999.0,  999.0,  999.0,  999.0,  999.0,  999.0,  999.0,  999.0,  999.0,  999.0,  999.0,  999.0,  999.0,  999.0,  999.0,  999.0,  999.0,  999.0
2015/05/11 05:00,  999.0,  999.0,   -0.6,   -0.7,  999.0,    0.7,    0.8,    2.2,    3.0,    2.1,    3.6,    2.2,    1.6,    1.8,    2.3,    3.0,    2.7,    2.0,    1.2,    0.1,   -0.0,    0.5,    0.9,    0.6,    0.5,    0.1,   -0.2,   -0.5,   -0.7,   -0.8,   -1.0,   -1.1,   -1.5,   -2.1,   -2.8,   -4.3,   -4.4,   -3.8,   -2.3,   -2.7,   -1.3,   -1.6,   -2.4,   -2.8,   -3.1,   -1.6,   -2.2,   -1.8,   -1.9,    0.1,    0.2,   -0.0,   -0.2,   -0.6,   -0.1,   -0.5,   -0.3,   -0.3,  999.0,   -0.0,    0.7,    0.4,    1.5,    0.1,    0.2,    0.2,    0.3,   -0.7,    0.2,   -0.2,   -1.2,   -0.6,   -0.2,    0.1,   -1.4,  999.0,  999.0,  999.0,  999.0,   -1.4,  999.0,    0.4,  999.0,   -0.5,   -0.5,   -3.3,  999.0,  999.0,  999.0,  999.0,  999.0,  999.0,  999.0,  999.0,  999.0,  999.0,  999.0,  999.0,  999.0,  999.0,  999.0,  999.0,  999.0,  999.0,  999.0,  999.0,  999.0,  999.0,  -19.3,  999.0,  999.0,  999.0,  999.0,  999.0,  999.0,  999.0,  999.0,  999.0,  999.0,  999.0
2015/05/11 05:10,  999.0,   -1.1,   -0.4,   -0.3,  999.0,    0.8,    1.5,    2.4,    2.9,    2.6,    3.6,    2.1,    1.6,    1.9,    2.8,    3.1,    3.0,    2.2,    1.3,    0.2,    0.1,  999.0,    1.1,    0.7,    0.5,    0.1,    0.2,   -0.2,   -0.5,   -1.5,   -1.3,   -1.5,   -1.9,   -2.0,   -3.1,   -4.4,   -4.3,   -3.3,   -2.4,   -2.5,   -1.0,   -1.4,   -2.1,   -1.8,   -2.3,   -1.4,   -1.9,   -2.5,   -0.8,   -0.1,   -0.6,   -0.9,   -0.2,   -0.9,   -0.4,   -0.5,   -0.7,   -0.4,   -0.6,   -0.1,    0.9,    0.4,    0.2,   -0.2,    0.2,    0.3,   -0.7,   -0.6,   -0.1,   -0.5,   -1.1,  999.0,   -0.0,   -0.6,   -1.3,  999.0,   -0.4,   -0.4,   -1.4,   -1.4,  999.0,    0.1,  999.0,   -0.5,  999.0,  999.0,  999.0,  999.0,  999.0,  999.0,  999.0,  999.0,  999.0,  999.0,    0.1,  999.0,  999.0,  999.0,  999.0,  999.0,  999.0,  999.0,  999.0,  999.0,  999.0,  999.0,  999.0,  999.0,  -19.6,  999.0,  999.0,  999.0,  999.0,  999.0,  999.0,  999.0,  999.0,  999.0,  999.0,  999.0
2015/05/11 05:20,  999.0,  999.0,   -0.1,   -0.4,    0.6,    0.9,    2.3,    2.3,    3.1,    2.4,    2.5,    1.8,    1.0,    1.3,    2.1,    2.7,    2.8,    2.6,    1.4,    0.5,   -0.0,  999.0,    0.8,    0.9,    0.7,    0.3,    0.2,   -0.1,   -0.8,   -1.5,   -1.5,   -2.2,   -2.8,   -2.7,   -2.8,   -3.9,   -3.9,   -3.0,   -2.7,   -2.7,   -1.3,   -1.2,   -1.7,   -1.9,   -2.2,   -1.1,   -1.7,   -1.1,   -0.6,   -0.5,   -0.8,   -0.5,   -0.7,   -0.4,   -1.1,   -1.3,   -0.9,   -0.1,   -0.5,    0.4,    1.0,    1.1,   -0.4,    0.1,    0.4,    0.3,   -0.6,   -0.5,    0.0,   -0.9,   -0.7,   -0.7,   -0.2,   -1.5,  999.0,   -2.0,   -0.7,  999.0,   -1.1,  999.0,  999.0,  999.0,  999.0,   -0.2,   -0.9,  999.0,  999.0,  999.0,  999.0,  999.0,  999.0,  999.0,  999.0,  999.0,  999.0,  999.0,  999.0,  999.0,  999.0,  999.0,  999.0,  999.0,  999.0,  999.0,  999.0,  999.0,  999.0,  999.0,  999.0,  999.0,  999.0,  999.0,  999.0,  -15.5,  999.0,  999.0,  999.0,  999.0,  999.0,  999.0
2015/05/11 05:30,  999.0,  999.0,  999.0,   -0.6,    0.1,    0.7,    2.3,    3.1,    3.5,    2.4,    2.6,    1.5,    0.7,    1.0,    1.9,    2.5,    2.9,    2.6,    1.3,    0.2,    0.2,    0.1,    0.4,    1.1,    0.7,    0.2,    0.0,   -0.1,   -0.3,   -0.9,   -1.8,   -2.1,   -2.9,   -2.9,   -3.6,   -4.5,   -3.3,   -2.6,   -3.0,   -1.8,   -1.1,   -1.2,   -1.7,   -2.3,   -2.4,   -1.1,   -0.8,   -1.3,   -0.1,   -1.2,   -0.5,   -0.6,   -0.8,   -0.4,   -1.3,   -0.6,   -1.0,    0.1,   -0.2,   -0.4,    0.9,    1.1,   -0.1,    0.9,    0.7,    0.3,   -0.4,   -0.5,    0.2,   -0.2,   -0.5,   -0.8,  999.0,   -0.5,  999.0,   -2.1,   -0.3,   -0.2,   -1.3,  999.0,   -2.8,  999.0,  999.0,   -0.9,   -0.8,  999.0,  999.0,  999.0,  999.0,  999.0,  999.0,  999.0,  999.0,  999.0,  999.0,  999.0,   -6.4,  999.0,  999.0,  999.0,  999.0,  999.0,  999.0,  999.0,  999.0,  999.0,  -24.8,  999.0,  -18.1,  999.0,  999.0,  999.0,  999.0,  999.0,  999.0,  999.0,  999.0,  999.0,  999.0,  999.0
2015/05/11 05:40,  999.0,  999.0,  999.0,   -0.8,  999.0,    0.6,    2.1,    3.2,    3.5,    2.5,    2.5,    1.5,    0.8,    1.6,    1.8,    2.8,    2.8,    2.5,    0.9,    0.0,    0.5,  999.0,    0.4,    0.9,    0.6,    0.4,   -0.1,   -0.3,    0.1,   -0.9,   -1.6,   -2.0,   -3.0,   -2.9,   -4.4,   -4.2,   -2.9,   -2.4,   -2.9,   -1.0,   -1.3,   -1.1,   -1.9,   -1.9,   -1.9,   -1.1,   -1.4,   -1.9,    0.1,   -1.1,   -0.6,  999.0,   -1.1,   -0.5,   -1.2,  999.0,   -0.5,    0.1,   -0.0,    0.1,    0.8,    0.5,    0.1,    1.0,    0.8,    0.6,   -0.4,   -0.5,    0.0,    0.1,   -0.5,   -0.6,    0.1,   -0.0,  999.0,   -1.4,   -0.3,   -0.2,   -2.0,   -0.6,  999.0,  999.0,  999.0,   -1.1,  999.0,  999.0,  999.0,  999.0,    0.5,  999.0,  999.0,  999.0,  999.0,  999.0,  999.0,  999.0,  999.0,  999.0,  999.0,  999.0,  999.0,  999.0,  999.0,  999.0,  999.0,  999.0,  -24.0,  -20.6,  -18.7,  999.0,  999.0,  999.0,  999.0,  -11.4,  999.0,  999.0,  999.0,  999.0,  999.0,  999.0
2015/05/11 05:50,  999.0,  999.0,  999.0,  999.0,  999.0,  999.0,  999.0,  999.0,  999.0,  999.0,  999.0,  999.0,  999.0,  999.0,  999.0,  999.0,  999.0,  999.0,  999.0,  999.0,  999.0,  999.0,  999.0,  999.0,  999.0,  999.0,  999.0,  999.0,  999.0,  999.0,  999.0,  999.0,  999.0,  999.0,  999.0,  999.0,  999.0,  999.0,  999.0,  999.0,  999.0,  999.0,  999.0,  999.0,  999.0,  999.0,  999.0,  999.0,  999.0,  999.0,  999.0,  999.0,  999.0,  999.0,  999.0,  999.0,  999.0,  999.0,  999.0,  999.0,  999.0,  999.0,  999.0,  999.0,  999.0,  999.0,  999.0,  999.0,  999.0,  999.0,  999.0,  999.0,  999.0,  999.0,  999.0,  999.0,  999.0,  999.0,  999.0,  999.0,  999.0,  999.0,  999.0,  999.0,  999.0,  999.0,  999.0,  999.0,  999.0,  999.0,  999.0,  999.0,  999.0,  999.0,  999.0,  999.0,  999.0,  999.0,  999.0,  999.0,  999.0,  999.0,  999.0,  999.0,  999.0,  999.0,  999.0,  999.0,  999.0,  999.0,  999.0,  999.0,  999.0,  999.0,  999.0,  999.0,  999.0,  999.0,  999.0,  999.0
2015/05/11 06:00,  999.0,  999.0,  999.0,  999.0,  999.0,  999.0,  999.0,  999.0,  999.0,  999.0,  999.0,  999.0,  999.0,  999.0,  999.0,  999.0,  999.0,  999.0,  999.0,  999.0,  999.0,  999.0,  999.0,  999.0,  999.0,  999.0,  999.0,  999.0,  999.0,  999.0,  999.0,  999.0,  999.0,  999.0,  999.0,  999.0,  999.0,  999.0,  999.0,  999.0,  999.0,  999.0,  999.0,  999.0,  999.0,  999.0,  999.0,  999.0,  999.0,  999.0,  999.0,  999.0,  999.0,  999.0,  999.0,  999.0,  999.0,  999.0,  999.0,  999.0,  999.0,  999.0,  999.0,  999.0,  999.0,  999.0,  999.0,  999.0,  999.0,  999.0,  999.0,  999.0,  999.0,  999.0,  999.0,  999.0,  999.0,  999.0,  999.0,  999.0,  999.0,  999.0,  999.0,  999.0,  999.0,  999.0,  999.0,  999.0,  999.0,  999.0,  999.0,  999.0,  999.0,  999.0,  999.0,  999.0,  999.0,  999.0,  999.0,  999.0,  999.0,  999.0,  999.0,  999.0,  999.0,  999.0,  999.0,  999.0,  999.0,  999.0,  999.0,  999.0,  999.0,  999.0,  999.0,  999.0,  999.0,  999.0,  999.0,  999.0
2015/05/11 06:10,  999.0,  999.0,   -2.2,   -1.6,   -1.0,  999.0,    1.2,    2.2,    2.7,    2.2,    2.7,    2.4,    0.7,    1.2,    1.8,    1.7,    2.2,    1.3,    0.1,   -0.0,   -0.4,   -0.1,    0.6,    2.2,    0.4,    0.8,    0.1,    0.5,    0.1,  999.0,   -0.5,   -1.6,   -1.8,   -2.9,  999.0,   -3.5,   -2.9,   -2.9,   -1.3,   -1.3,   -1.4,   -2.1,   -2.1,   -2.1,   -1.9,   -1.7,   -2.0,   -0.2,   -1.2,  999.0,   -0.3,    0.1,   -0.9,   -1.0,   -1.5,   -1.3,   -1.6,   -1.2,   -1.1,    0.3,    1.1,    1.3,    1.8,    1.9,    3.0,    0.2,    0.1,  999.0,    0.8,    0.3,    0.2,    0.0,   -0.6,  999.0,   -0.8,   -0.5,   -0.5,   -1.7,  999.0,  999.0,  999.0,   -1.6,   -1.1,  999.0,   -3.3,  999.0,  999.0,  999.0,  999.0,  999.0,  999.0,  999.0,  999.0,  999.0,  999.0,  999.0,  999.0,  999.0,  999.0,  999.0,  999.0,  999.0,  999.0,  999.0,  999.0,  999.0,  999.0,  -20.8,  -20.8,  -19.6,  999.0,  999.0,  999.0,  999.0,  999.0,  999.0,  999.0,  999.0,  999.0,  999.0
2015/05/11 06:20,  -16.8,  999.0,   -2.3,   -2.4,   -1.6,   -0.6,    0.6,    1.9,    2.3,    2.2,    2.8,    2.6,    1.2,    1.2,    1.9,    1.9,    1.9,    1.4,   -0.2,   -0.4,   -0.4,   -0.4,    0.9,    1.7,    0.6,    0.7,    0.3,    0.3,    0.0,   -0.1,   -1.0,   -1.5,   -1.9,   -3.1,   -3.4,   -3.5,   -2.8,   -2.4,   -1.5,   -1.1,   -1.5,   -1.9,   -2.1,   -2.1,   -1.7,   -1.8,   -1.7,   -1.7,   -0.5,   -0.3,   -0.3,   -0.1,   -0.9,   -1.2,   -1.5,   -0.8,   -1.3,   -0.6,  999.0,    0.9,    1.6,    2.4,    2.1,    2.1,    2.6,   -0.0,    0.1,    0.3,    0.6,    0.2,    0.1,    0.0,   -0.9,  999.0,   -0.2,   -0.4,   -0.0,   -2.1,  999.0,  999.0,  999.0,   -0.7,  999.0,  999.0,  999.0,  999.0,  999.0,  999.0,  999.0,  999.0,  999.0,  999.0,  999.0,  999.0,  999.0,  999.0,  999.0,  999.0,  999.0,  999.0,  999.0,  999.0,  999.0,  999.0,  999.0,  999.0,  999.0,  999.0,  -20.8,  -20.7,  999.0,  999.0,  999.0,  999.0,  999.0,  999.0,  999.0,  999.0,  999.0,  999.0
2015/05/11 06:30,  -17.8,  999.0,   -2.6,   -2.8,   -2.1,   -0.6,    0.6,    1.7,    2.3,    2.3,    2.8,    2.5,    1.5,    1.2,    1.6,    1.8,    1.8,    0.9,   -0.8,   -0.9,   -0.7,   -0.5,    0.5,    1.3,    0.6,    0.4,    0.0,    0.0,    0.2,   -0.2,   -0.8,   -1.0,   -1.8,   -2.2,   -3.6,   -3.5,   -2.8,   -2.4,   -2.2,   -1.1,   -1.4,   -2.0,   -1.7,   -1.8,   -2.2,   -1.5,   -1.3,   -0.7,   -0.5,   -0.4,   -0.3,   -0.2,   -1.1,   -1.7,   -1.9,   -1.0,   -1.7,   -0.6,    0.5,    1.0,    1.5,    3.1,    2.6,    3.0,    2.1,   -1.3,    0.9,    0.9,    0.6,    0.6,    0.7,    0.0,   -0.7,  999.0,    0.4,   -0.4,   -0.2,  999.0,   -1.0,  999.0,  999.0,   -0.7,  999.0,   -0.2,  999.0,  999.0,  999.0,  999.0,  999.0,  999.0,  999.0,  999.0,  999.0,  999.0,  999.0,  999.0,  999.0,  999.0,  999.0,  999.0,  999.0,  999.0,  999.0,  999.0,  999.0,  999.0,  999.0,  999.0,  -20.9,  -21.9,  999.0,  999.0,  999.0,  999.0,  999.0,  999.0,  999.0,  999.0,  999.0,  999.0
2015/05/11 06:40,  -18.8,  -18.5,  999.0,   -2.6,   -2.1,   -0.5,    0.5,    1.5,    2.3,    2.4,    2.7,    2.5,    1.5,    1.4,    1.8,    2.3,    2.5,    1.5,   -0.6,   -1.3,   -1.2,   -0.6,    0.4,    1.2,    0.6,    0.4,    0.2,    0.1,    0.6,  999.0,   -0.6,   -0.8,   -1.4,   -1.9,   -2.9,   -3.1,   -2.5,   -2.2,   -2.1,   -0.9,   -0.8,   -1.2,   -1.5,   -1.8,   -1.9,   -1.0,   -0.8,   -0.7,   -0.8,   -0.8,   -0.4,   -0.6,   -1.4,   -1.9,   -1.5,  999.0,   -1.7,   -0.7,    0.7,    1.0,    2.6,    3.0,    3.3,    3.7,    2.0,    0.7,    0.6,    1.8,    0.7,    0.7,    1.0,    0.2,    0.1,   -0.1,    0.3,    0.1,   -1.0,   -3.3,   -1.5,  999.0,  999.0,   -0.6,  999.0,   -0.3,  999.0,  999.0,  999.0,  999.0,  999.0,  999.0,  999.0,  999.0,  999.0,  999.0,  999.0,  999.0,  999.0,  999.0,  999.0,  999.0,  999.0,  999.0,  999.0,  999.0,  999.0,  999.0,  999.0,  999.0,  -20.3,  -22.6,  999.0,  999.0,  999.0,  999.0,  999.0,  999.0,  999.0,  999.0,  999.0,  999.0
2015/05/11 06:50,  -19.4,  999.0,  999.0,   -2.3,   -2.2,   -0.9,  999.0,    1.9,    2.2,    2.3,    2.7,    2.5,    1.6,    1.3,    2.3,    2.4,    3.1,    1.9,   -0.4,   -0.9,   -1.0,   -0.3,    0.6,    1.0,    0.5,    0.4,    0.1,    0.1,    0.2,   -0.3,   -0.5,   -0.7,   -1.5,   -1.5,   -2.8,   -2.7,   -2.7,   -2.3,   -2.2,   -0.7,   -0.8,   -1.0,   -1.1,   -1.8,   -1.8,   -0.7,   -0.9,   -0.6,   -1.0,   -0.5,   -0.4,   -0.6,   -1.6,   -1.4,   -1.9,   -1.6,   -1.3,   -0.3,    1.6,    1.3,    4.0,    4.2,    2.7,    3.6,    1.0,    0.4,    0.1,    1.7,    0.8,    0.4,    0.7,    0.3,    0.1,    0.0,    0.3,    0.1,   -0.2,   -2.3,   -0.9,   -0.9,  999.0,   -0.2,   -0.2,   -0.1,  999.0,  999.0,    0.0,  999.0,  999.0,  999.0,  999.0,  999.0,  999.0,  999.0,  999.0,  999.0,  999.0,  999.0,  999.0,  999.0,  999.0,  999.0,  999.0,  999.0,  999.0,  999.0,  999.0,  999.0,  -19.8,  -21.8,  999.0,  999.0,  999.0,  999.0,  999.0,  999.0,  -16.5,  999.0,  999.0,  999.0
2015/05/11 07:00,  999.0,  999.0,  999.0,   -1.9,   -1.7,   -0.7,  999.0,    1.8,    2.4,    2.1,    2.8,    2.5,    1.5,    1.3,    2.2,    2.3,    2.7,    1.5,    0.0,   -0.2,   -0.4,   -0.3,    0.8,    0.7,    0.6,    0.3,    0.3,    0.5,    0.5,    0.4,   -0.4,   -0.6,   -1.5,   -1.4,   -2.9,   -2.9,   -3.2,   -2.9,   -2.5,   -1.1,   -0.8,   -1.5,   -1.6,   -1.9,   -2.4,   -0.7,   -0.7,   -0.8,   -1.0,   -0.6,   -0.4,   -0.7,   -1.6,   -2.1,   -1.7,   -1.0,   -0.9,   -0.1,    1.4,    1.6,    3.3,    3.7,    2.4,    2.7,    0.1,   -0.1,    0.1,    0.6,    0.7,    0.6,    0.7,    0.1,    0.4,    0.1,    0.3,    0.1,   -0.1,   -0.9,   -0.1,   -1.6,   -2.5,   -0.4,   -0.5,   -0.1,    0.1,    0.6,   -0.4,  999.0,  999.0,  999.0,  999.0,  999.0,  999.0,  999.0,  999.0,  999.0,  999.0,  999.0,  999.0,  999.0,  999.0,  999.0,  999.0,  999.0,  999.0,  999.0,  999.0,  999.0,  -18.7,  -20.8,  999.0,  999.0,  999.0,  999.0,  -17.6,  999.0,  999.0,  999.0,  999.0,  999.0
2015/05/11 07:10,  999.0,  999.0,  999.0,   -2.8,   -2.4,   -0.9,  999.0,    0.9,    2.4,    2.3,    2.7,    2.1,    1.5,    1.1,    2.2,    2.4,    2.5,    1.2,   -0.2,   -0.3,   -0.3,   -0.0,    0.6,    1.0,    0.3,    0.4,    0.1,    0.2,    0.5,    0.4,   -0.3,   -0.5,   -1.3,   -1.8,   -2.5,   -2.9,   -3.0,   -3.0,   -2.1,   -0.8,   -0.7,   -1.3,   -1.7,   -1.4,   -1.4,   -0.5,   -0.7,   -0.7,   -0.8,   -0.6,   -0.4,   -0.6,   -1.9,   -2.2,   -1.6,   -1.0,   -1.2,   -0.6,    0.8,    0.9,    1.0,    2.8,    1.1,    1.1,   -0.0,   -0.2,    0.4,    0.9,    0.5,    0.5,    0.6,    0.6,    0.1,    0.2,    0.0,    0.0,   -0.3,   -0.6,   -0.1,   -2.5,   -2.7,   -0.6,   -0.9,    0.0,   -1.5,    0.0,   -0.7,   -0.9,  999.0,  999.0,  999.0,  999.0,  999.0,  999.0,  999.0,  999.0,  999.0,  999.0,  999.0,  999.0,  999.0,  999.0,  999.0,  999.0,  999.0,  999.0,  999.0,  999.0,  -18.8,  -20.6,  999.0,  999.0,  999.0,  999.0,  999.0,  999.0,  999.0,  999.0,  999.0,  999.0
2015/05/11 07:20,  999.0,  999.0,  999.0,   -3.1,   -2.4,   -1.2,    0.1,    0.8,    1.8,    2.0,    2.7,    2.0,    1.1,    0.9,    2.2,    2.3,    2.3,    1.1,   -0.2,   -0.7,   -0.3,    0.0,    0.1,    0.6,    0.4,    0.3,    0.2,    0.1,    0.7,    0.1,  999.0,   -0.3,   -1.0,   -1.3,   -1.7,   -2.1,   -2.3,   -2.4,   -1.7,   -1.0,   -0.5,   -1.6,   -1.6,   -0.8,   -1.3,   -0.3,   -0.6,   -0.5,   -1.0,   -0.4,   -0.6,   -1.0,   -2.1,   -2.7,   -1.7,   -1.9,   -1.7,   -0.6,    1.5,    1.4,    0.6,    2.7,    1.7,    0.5,    0.5,    0.3,    0.6,    0.9,    1.2,    0.6,    0.7,    1.2,    0.1,    0.1,   -0.3,   -0.0,   -0.3,   -0.4,   -0.0,   -1.7,   -2.8,   -0.8,   -0.3,   -0.0,  999.0,    0.3,   -0.4,  999.0,  999.0,  999.0,  999.0,  999.0,   -1.0,   -1.2,    0.2,  999.0,  999.0,  999.0,  999.0,  999.0,  999.0,  999.0,  999.0,  999.0,  999.0,  999.0,  999.0,  999.0,  -18.1,  -19.3,  999.0,  999.0,  999.0,  999.0,  999.0,  999.0,  999.0,  999.0,  -14.2,  999.0
2015/05/11 07:30,  999.0,  999.0,  999.0,   -2.6,   -1.7,   -0.8,    0.5,    0.9,    1.3,    1.7,    2.4,    1.5,    1.0,    0.7,    2.2,    1.7,    1.6,    0.8,   -0.5,   -0.8,   -0.4,    0.1,    0.3,    0.7,    0.3,    0.3,   -0.0,    0.4,    0.1,    0.0,   -0.1,    0.1,   -0.7,   -1.0,   -1.5,   -2.5,   -2.1,   -2.6,   -1.4,   -1.1,   -0.8,   -1.2,   -2.2,   -1.4,   -1.4,   -1.0,   -0.9,   -0.4,   -0.8,   -0.3,   -0.5,   -1.4,   -2.2,   -2.4,   -1.6,   -2.0,   -1.6,   -0.3,    1.6,    0.9,    2.6,    2.8,    1.5,    0.2,    0.7,    0.3,    0.7,    0.8,    1.7,    0.7,    1.1,    1.2,    0.3,    0.1,   -0.0,   -0.1,   -0.2,  999.0,   -0.3,   -0.7,   -1.9,   -0.4,   -0.2,   -0.6,  999.0,  999.0,   -0.2,  999.0,  999.0,  999.0,  999.0,  999.0,  999.0,  999.0,  999.0,  999.0,  999.0,  999.0,  999.0,  999.0,  999.0,  999.0,  999.0,  999.0,  999.0,  999.0,  999.0,  999.0,  -16.7,  -18.4,  999.0,  999.0,  999.0,  999.0,  999.0,  999.0,  999.0,  999.0,  999.0,  999.0
2015/05/11 07:40,  999.0,  999.0,   -3.5,   -2.7,   -1.1,   -0.5,    1.0,    1.2,    1.6,    1.3,    1.6,    1.4,    0.6,    1.1,    2.2,    1.2,    1.4,    0.4,   -0.2,   -0.8,   -0.3,    0.4,    0.9,    0.9,    0.3,    0.5,    0.6,    0.5,    0.1,    0.1,   -0.1,    0.1,   -0.8,   -1.5,   -1.7,   -2.4,   -1.2,   -1.9,   -1.0,   -1.5,   -1.1,   -1.7,   -2.2,   -1.8,   -1.8,   -1.1,   -1.0,   -0.7,   -0.9,   -0.3,   -0.4,   -1.5,   -1.8,   -2.0,   -2.2,   -2.5,   -1.4,   -0.5,    0.9,   -0.1,    2.7,    2.0,    0.5,    0.1,    0.3,    0.2,    0.5,    1.1,    1.5,    1.0,    1.3,    0.8,   -0.1,   -0.2,    0.1,   -0.4,   -0.1,   -0.7,   -0.9,   -1.8,   -2.3,   -0.3,   -0.2,    0.1,  999.0,    1.2,   -0.3,   -0.1,  999.0,  999.0,  999.0,  999.0,   -4.0,  999.0,  999.0,  999.0,  999.0,  999.0,  999.0,  999.0,  999.0,  999.0,  999.0,  999.0,  999.0,  999.0,  999.0,  999.0,  999.0,  -18.6,  999.0,  999.0,  999.0,  999.0,  999.0,  999.0,  999.0,  999.0,  999.0,  999.0
2015/05/11 07:50,  999.0,  -10.2,   -3.1,   -3.1,   -1.7,    0.0,    1.1,    1.8,    1.9,    1.4,    1.5,    1.2,    0.3,    1.6,    2.3,    1.6,    1.5,    0.4,   -0.5,   -0.7,   -0.4,    0.4,    0.8,    1.1,    0.7,    0.6,    0.1,    0.6,    0.4,   -0.1,   -0.1,   -0.0,   -1.1,   -1.4,   -1.9,   -1.2,   -0.9,   -1.1,   -0.8,   -1.1,   -1.0,   -2.4,   -2.4,   -1.9,   -2.1,   -1.2,   -1.6,   -0.7,   -1.2,   -0.1,   -0.3,   -0.7,   -1.8,   -2.4,   -2.9,   -3.2,   -2.4,   -0.7,    0.8,    0.3,    1.4,    1.1,    0.5,    0.4,    0.4,    0.5,    0.3,    1.0,    0.8,    1.3,    0.9,    0.3,   -0.2,   -0.1,    0.0,   -0.4,   -0.2,   -1.2,   -0.6,   -2.4,   -2.3,   -0.8,   -1.1,   -0.1,  999.0,  999.0,   -1.2,  999.0,  999.0,  999.0,  999.0,  999.0,  999.0,  999.0,  999.0,  999.0,  999.0,  999.0,  999.0,  999.0,  999.0,  999.0,  999.0,  999.0,  999.0,  999.0,  -23.9,  999.0,  999.0,  -17.8,  999.0,  999.0,  999.0,  999.0,  999.0,  999.0,  999.0,  999.0,  999.0,  999.0
2015/05/11 08:00,    0.3,   -0.2,   -2.9,  999.0,   -1.6,  999.0,    1.6,    1.9,    1.8,    1.5,    0.9,    1.0,    0.6,    1.2,    2.1,    1.7,    1.3,    0.2,   -0.8,   -1.1,   -0.9,    0.1,    0.7,  999.0,    0.5,    0.4,    0.2,    0.4,  999.0,   -0.2,    0.2,   -0.3,   -1.4,   -1.2,   -1.8,   -1.3,   -0.5,   -1.1,   -1.1,   -1.2,   -0.8,   -2.1,   -2.3,   -1.8,   -2.0,   -1.3,   -0.9,   -0.7,   -1.2,    0.0,   -0.4,   -0.8,   -2.0,   -2.3,   -2.9,   -3.1,   -2.5,   -0.7,    1.0,    0.0,    1.1,    0.8,    0.3,    0.4,    0.3,    0.6,    0.4,    0.8,    0.7,    0.9,    0.8,    0.3,   -0.3,   -0.2,    0.1,   -0.3,   -0.4,   -0.7,   -0.2,   -2.2,   -2.4,   -0.6,  999.0,   -0.4,    0.2,    0.4,   -1.5,  999.0,  999.0,  999.0,  999.0,  999.0,  999.0,  999.0,   -0.8,  999.0,  999.0,  999.0,  999.0,  999.0,  999.0,  999.0,  999.0,  999.0,  999.0,  999.0,  999.0,  999.0,  999.0,  999.0,  999.0,  999.0,  999.0,  999.0,  999.0,  999.0,  999.0,  999.0,  999.0,  999.0
2015/05/11 08:10,    0.3,   -0.4,   -2.7,  999.0,   -1.4,    0.6,    1.7,    1.9,    1.9,    1.8,    1.0,    0.4,    0.5,    1.5,    1.8,    1.8,    0.9,   -0.2,   -1.1,   -1.2,   -1.6,   -0.2,    0.8,    1.2,    0.6,    0.7,    0.2,    0.4,    0.2,   -0.0,    0.3,   -0.7,   -1.3,   -1.2,   -1.9,   -1.5,   -0.8,   -1.1,   -1.3,   -1.0,   -0.9,   -1.9,   -2.4,   -2.1,   -1.8,   -1.5,   -0.8,   -1.2,   -1.3,   -0.4,   -0.5,   -1.5,   -1.7,   -2.4,   -2.7,   -3.2,   -2.6,   -0.7,    0.6,   -0.1,    0.7,    0.3,    0.2,    0.4,    0.3,    0.1,    0.2,   -0.3,    0.6,    0.6,    0.7,    0.0,   -0.1,   -0.2,    0.1,   -0.2,   -0.0,   -0.5,   -0.5,   -2.1,   -3.4,   -0.5,    0.4,   -0.3,   -0.9,    0.2,   -1.0,  999.0,  999.0,  999.0,  999.0,   -2.7,  999.0,   -0.6,   -3.1,  999.0,  999.0,  999.0,  999.0,   -7.8,  999.0,  999.0,  999.0,  999.0,  999.0,  999.0,  999.0,  999.0,  999.0,  999.0,  999.0,  999.0,  999.0,  999.0,  999.0,  -14.8,  999.0,  999.0,  999.0,  999.0
2015/05/11 08:20,  999.0,   -1.6,   -2.5,  999.0,   -1.0,  999.0,  999.0,  999.0,  999.0,  999.0,  999.0,    0.5,  999.0,  999.0,    1.3,    0.6,    0.6,   -0.6,   -1.3,   -1.2,   -1.7,   -0.2,  999.0,    0.8,    0.1,    1.0,    0.1,    0.3,  999.0,    0.1,   -0.4,   -0.8,   -1.2,   -1.0,   -1.3,   -1.7,   -2.5,  999.0,  999.0,   -1.3,   -0.9,   -2.0,   -2.6,   -2.2,   -1.8,   -1.1,  999.0,   -1.4,   -2.3,   -1.3,   -1.1,   -1.6,   -2.3,   -2.7,   -3.0,   -2.7,   -2.6,   -2.0,  999.0,   -0.5,    0.2,    0.7,    0.4,    0.1,    0.3,    0.2,    0.5,   -0.2,    0.9,   -0.3,    0.5,   -0.1,    0.4,   -0.6,   -0.1,   -0.6,    0.2,   -0.3,   -1.3,   -2.8,   -3.3,   -0.4,    0.1,    0.2,  999.0,   -0.2,   -0.7,  999.0,  999.0,  999.0,  999.0,  999.0,  999.0,  999.0,  999.0,  999.0,  999.0,  999.0,  999.0,  999.0,  999.0,  999.0,  999.0,  999.0,  999.0,  999.0,  999.0,  999.0,  999.0,  999.0,  999.0,  999.0,  999.0,  999.0,  999.0,  999.0,  999.0,  999.0,  999.0,  999.0
2015/05/11 08:30,  999.0,   -2.5,   -2.4,   -2.4,   -1.0,  999.0,    1.9,    2.0,  999.0,    1.9,    1.4,    0.6,    0.6,    1.6,  999.0,    0.5,  999.0,   -1.2,   -0.7,   -0.9,   -1.9,   -0.6,    0.9,    1.1,    0.1,   -0.1,    0.0,    0.2,    0.3,    0.1,   -0.2,   -1.8,   -1.6,   -1.3,   -1.2,   -2.1,   -1.9,   -0.9,   -1.3,   -0.9,   -0.8,   -1.8,   -2.3,   -1.9,   -1.6,   -0.9,   -1.2,   -1.2,   -2.5,   -0.9,   -0.9,   -1.8,   -2.5,   -2.5,   -2.3,   -2.9,   -2.3,   -1.7,    0.1,   -0.1,    1.2,    0.5,    0.3,    0.3,    0.3,   -0.3,   -0.3,   -0.5,   -0.2,   -0.0,    0.0,    0.0,   -0.4,   -0.8,   -0.8,   -0.3,   -0.4,   -0.1,   -1.0,   -3.0,   -3.1,   -0.6,    0.3,    0.2,  999.0,   -0.3,   -0.5,  999.0,  999.0,  999.0,  999.0,  999.0,  999.0,  999.0,  999.0,  999.0,  999.0,  999.0,  999.0,  999.0,  999.0,  999.0,  999.0,  999.0,  999.0,  999.0,  999.0,  999.0,  999.0,  999.0,  999.0,  999.0,  999.0,  999.0,  999.0,  999.0,  999.0,  999.0,  999.0,  999.0
2015/05/11 08:40,   -0.0,  999.0,   -2.5,   -2.4,  999.0,  999.0,    2.4,    2.5,    2.0,    2.1,    2.2,  999.0,  999.0,  999.0,  999.0,    0.3,   -0.3,   -1.7,   -2.5,  999.0,   -2.1,   -0.8,    1.8,    1.6,    0.2,  999.0,    0.9,  999.0,  999.0,  999.0,  999.0,   -2.1,  999.0,   -1.7,   -2.2,   -2.2,   -2.1,  999.0,   -2.1,   -1.7,  999.0,   -2.2,   -2.4,   -2.3,   -2.0,   -2.5,   -1.5,  999.0,   -2.6,  999.0,  999.0,  999.0,   -2.5,   -2.4,   -2.6,   -3.1,   -3.0,   -0.7,  999.0,   -0.4,    1.4,    0.6,    0.9,    0.6,    0.7,   -0.1,   -0.1,   -0.9,   -0.1,   -0.0,    1.0,  999.0,   -1.8,   -0.7,   -0.9,   -1.0,   -1.6,   -2.0,   -1.2,   -3.6,   -3.0,   -0.7,   -0.8,   -1.4,  999.0,  999.0,  999.0,  999.0,  999.0,  999.0,  999.0,  999.0,  999.0,  999.0,  999.0,  999.0,  999.0,  999.0,  999.0,  999.0,  999.0,  999.0,  999.0,  999.0,  999.0,  999.0,  999.0,  999.0,  999.0,  999.0,  999.0,  999.0,  999.0,  999.0,  999.0,  999.0,  999.0,  999.0,  999.0,  999.0
2015/05/11 08:50,   -6.9,   -4.1,   -2.6,   -2.5,  999.0,  999.0,    2.2,    2.6,  999.0,    2.3,  999.0,   -0.1,  999.0,  999.0,  999.0,    0.5,   -0.1,   -2.0,   -2.4,   -2.0,   -2.4,   -1.5,   -0.7,  999.0,   -0.2,    0.7,    0.4,  999.0,    1.0,   -0.1,   -0.6,  999.0,   -2.6,  999.0,  999.0,   -2.3,   -2.3,  999.0,   -1.9,   -1.3,  999.0,   -2.2,   -2.3,   -2.4,   -2.3,   -2.7,  999.0,  999.0,   -2.6,  999.0,  999.0,   -2.3,   -3.3,   -2.6,   -2.8,   -3.1,   -2.9,   -1.8,  999.0,   -0.2,    2.2,    1.3,    0.7,    0.4,    0.2,    0.1,   -0.2,   -0.7,   -0.4,    0.6,    1.0,  999.0,   -1.0,   -0.5,    0.0,   -1.6,   -1.8,   -1.8,   -2.8,   -4.6,   -4.1,  999.0,   -1.7,   -1.4,  999.0,  999.0,  999.0,  999.0,  999.0,  999.0,  999.0,  999.0,  999.0,  999.0,  999.0,  999.0,  999.0,  999.0,  999.0,  999.0,  999.0,  999.0,  999.0,  999.0,  999.0,  999.0,  -23.2,  999.0,  999.0,  999.0,  999.0,  999.0,  999.0,  999.0,  999.0,  999.0,  999.0,  999.0,  999.0,  999.0
2015/05/11 09:00,  999.0,  999.0,   -2.6,  999.0,  999.0,  999.0,    1.5,    1.4,    1.5,    1.5,  999.0,  999.0,    1.2,    2.8,    1.2,    0.6,    0.7,   -1.4,  999.0,   -1.8,   -2.4,   -1.3,   -0.6,    2.0,    1.2,    0.9,    0.1,    0.6,    0.5,   -0.1,  999.0,   -1.2,  999.0,   -1.8,   -1.8,   -1.7,   -1.4,   -0.9,   -2.1,   -0.6,   -0.5,  999.0,  999.0,   -2.7,   -1.8,   -2.2,   -2.0,  999.0,   -2.3,   -2.3,   -1.5,   -3.5,   -3.1,  999.0,   -2.5,  999.0,  999.0,   -0.5,  999.0,    1.0,    1.1,    1.1,    0.0,   -0.1,    0.1,  999.0,   -0.0,    0.4,    0.0,    0.5,    0.6,    0.2,    0.4,    0.1,    0.0,    0.0,  999.0,  999.0,  999.0,   -2.8,   -3.8,  999.0,    0.0,    0.1,   -0.2,   -0.0,   -2.3,  999.0,   -3.2,  999.0,  999.0,  999.0,  999.0,  999.0,  999.0,  999.0,  999.0,  999.0,  999.0,  999.0,  999.0,  999.0,  999.0,  999.0,  999.0,  -22.2,  -23.7,  999.0,  -15.9,  999.0,  999.0,  999.0,  999.0,  999.0,  999.0,  999.0,  999.0,  999.0,  999.0,  999.0
2015/05/11 09:10,  999.0,  999.0,   -3.5,   -2.2,   -1.6,    0.5,    1.4,    1.0,    0.9,    1.1,    1.0,   -0.2,    0.9,    1.0,    0.8,    1.0,    0.9,   -0.7,   -2.0,   -1.3,   -2.1,   -0.8,   -0.1,    0.8,    1.1,    0.5,    0.1,    0.4,    0.8,    0.1,   -0.8,   -2.0,   -2.4,   -1.8,   -0.9,   -0.8,   -0.4,   -0.4,   -0.4,   -0.1,    0.2,   -0.6,   -1.8,   -1.9,   -1.5,   -1.2,   -0.8,   -1.6,   -2.3,   -1.6,   -1.9,   -3.2,   -3.2,   -2.9,   -2.7,   -2.6,   -1.9,   -0.8,  999.0,    0.3,    1.6,    0.4,    0.0,    0.0,    0.1,    0.1,    0.0,    0.1,    0.1,    0.6,    0.5,    0.4,    0.2,   -0.1,   -0.4,   -0.2,    0.3,    0.1,   -0.5,   -2.6,   -3.7,    0.5,    0.3,    0.0,   -0.2,   -0.3,    0.1,   -0.1,   -2.2,  999.0,  999.0,   -2.2,   -0.7,   -0.2,    0.0,  999.0,  999.0,  999.0,  999.0,  999.0,  999.0,  999.0,  -17.1,  999.0,  999.0,  999.0,  999.0,  999.0,  999.0,  999.0,  999.0,  999.0,  999.0,  999.0,  999.0,  999.0,  999.0,  999.0,  999.0,  999.0
2015/05/11 09:20,  -21.7,  999.0,   -3.5,   -2.4,   -1.4,    0.9,    1.4,    1.0,    1.4,    0.7,    1.0,   -0.4,    0.8,    1.7,    1.2,    1.5,    0.9,   -1.1,   -1.6,   -1.7,   -2.4,  999.0,   -0.6,    0.7,    0.0,    0.3,    0.2,    0.7,    0.0,    0.6,   -0.4,   -2.3,   -2.7,   -2.2,   -1.5,   -1.5,   -0.2,   -1.4,   -0.9,   -0.2,    0.1,    0.7,   -2.2,   -2.5,   -2.2,   -1.4,   -0.1,  999.0,   -2.5,  999.0,   -3.0,   -3.4,   -3.2,   -3.3,   -3.3,   -2.6,  999.0,   -4.4,  999.0,    0.5,    1.9,   -1.8,    0.5,   -0.1,    0.0,    0.3,    0.9,   -0.1,   -0.3,    1.5,    1.3,    0.5,    0.0,   -3.8,   -0.4,   -1.3,    0.6,   -0.9,   -4.3,   -4.0,   -5.5,   -2.6,    0.2,   -3.0,   -3.2,    3.0,  999.0,    1.0,  999.0,  999.0,  999.0,  999.0,  999.0,    0.0,  999.0,  999.0,  999.0,  999.0,  999.0,  999.0,  999.0,  999.0,  999.0,  -12.6,  999.0,  999.0,  999.0,  999.0,  999.0,  999.0,  999.0,  999.0,  999.0,  999.0,  999.0,  999.0,  999.0,  999.0,  999.0,  -20.2
2015/05/11 09:30,  -15.7,   -3.6,   -2.6,   -1.0,    0.3,    1.1,    1.7,    1.0,    0.9,  999.0,    0.5,   -0.4,    0.7,  999.0,    1.0,    0.9,    0.5,   -0.2,   -2.5,   -2.4,   -2.5,   -2.1,   -0.2,    0.8,    0.7,    0.3,    0.8,    0.3,   -0.0,   -0.3,   -0.9,   -2.1,   -2.8,   -2.6,   -0.5,   -0.9,  999.0,    0.9,   -0.4,   -1.3,    0.9,  999.0,   -1.8,   -2.3,  999.0,   -2.6,   -1.6,  999.0,  999.0,   -1.9,  999.0,   -3.9,   -5.0,   -3.2,   -3.0,   -2.5,  999.0,  999.0,  999.0,    1.8,    1.3,    1.1,  999.0,    0.9,  999.0,  999.0,    0.9,  999.0,    2.3,    1.9,  999.0,  999.0,    1.6,    3.8,  999.0,  999.0,  999.0,  999.0,  999.0,  999.0,  999.0,  999.0,  999.0,  999.0,  999.0,  999.0,  999.0,  999.0,  999.0,  999.0,  999.0,  999.0,  999.0,  999.0,  999.0,  999.0,  999.0,  999.0,  999.0,  999.0,  999.0,  999.0,  999.0,  999.0,  999.0,  999.0,  999.0,  999.0,  999.0,  999.0,  999.0,  999.0,  999.0,  999.0,  999.0,  999.0,  999.0,  999.0,  999.0,  999.0
2015/05/11 09:40,  -15.9,   -4.5,   -3.1,  999.0,   -1.6,    0.7,    2.2,    1.6,    0.8,    0.9,   -1.0,   -1.8,    0.5,    1.4,  999.0,    1.9,   -0.7,  999.0,   -1.9,   -2.1,   -3.0,  999.0,   -1.0,    1.2,    0.9,    0.1,    0.3,   -0.1,   -1.9,  999.0,  999.0,  999.0,   -2.7,   -2.5,  999.0,  999.0,   -0.9,   -0.4,    0.0,   -0.6,    0.3,  999.0,   -2.3,   -2.3,   -2.0,  999.0,  999.0,  999.0,   -2.6,   -2.0,  999.0,   -3.6,   -3.3,   -3.4,   -3.1,   -2.5,   -2.2,   -1.4,  999.0,    0.6,   -0.2,    0.5,   -0.2,    0.1,   -0.3,    0.1,   -0.1,    0.5,    0.5,    0.1,   -1.9,   -1.4,   -2.4,   -3.4,  999.0,  999.0,  999.0,  999.0,  999.0,  999.0,  999.0,   -2.2,  999.0,  999.0,  999.0,  999.0,  999.0,  999.0,  999.0,  999.0,  999.0,  999.0,  999.0,  999.0,  999.0,  999.0,  999.0,  999.0,  999.0,  999.0,  999.0,  999.0,  999.0,  999.0,  999.0,  999.0,  999.0,  999.0,  999.0,  999.0,  999.0,  999.0,  999.0,  999.0,  999.0,  999.0,  999.0,  999.0,  999.0,  999.0
2015/05/11 09:50,  999.0,   -3.5,   -3.1,  999.0,  999.0,    0.3,  999.0,  999.0,  999.0,  999.0,   -1.0,   -1.5,  999.0,  999.0,  999.0,  999.0,  999.0,  999.0,   -1.9,   -2.2,   -2.7,   -0.7,   -1.0,  999.0,    0.0,    0.1,   -0.2,   -0.2,   -1.5,  999.0,  999.0,  999.0,   -2.6,   -2.6,  999.0,   -1.1,   -0.3,   -0.4,   -0.7,   -0.8,   -0.4,   -1.8,   -2.4,  999.0,  999.0,   -1.4,  999.0,  999.0,   -3.2,   -1.9,   -2.2,   -2.9,   -2.7,   -3.3,   -2.8,  999.0,  999.0,  999.0,  999.0,  999.0,    1.8,    1.2,  999.0,    0.3,  999.0,    0.1,    0.0,    0.6,  999.0,    0.5,   -0.9,   -1.6,   -1.4,   -1.6,   -0.5,    0.9,  999.0,  999.0,  999.0,  999.0,   -3.8,   -2.7,  999.0,  999.0,  999.0,  999.0,  999.0,  999.0,  999.0,  999.0,  999.0,  999.0,  999.0,  999.0,  999.0,  999.0,  999.0,  999.0,  999.0,  999.0,  999.0,  999.0,  999.0,  999.0,  999.0,  999.0,  999.0,  999.0,  999.0,  999.0,  999.0,  999.0,  999.0,  999.0,  999.0,  999.0,  999.0,  999.0,  999.0,  999.0
2015/05/11 10:00,   -8.7,   -4.0,   -2.5,  999.0,   -0.2,    0.9,  999.0,  999.0,  999.0,  999.0,   -0.7,  999.0,  999.0,  999.0,    0.6,  999.0,  999.0,   -1.0,   -1.5,   -0.5,  999.0,   -0.6,   -0.4,    0.5,    0.1,   -0.1,   -0.3,   -1.5,   -0.9,   -0.9,   -1.3,   -1.8,   -2.1,   -1.4,   -1.2,   -0.4,    0.3,    0.1,    0.0,   -0.1,   -0.6,   -0.6,  999.0,   -2.2,   -1.1,   -0.9,   -1.2,   -2.5,   -2.1,   -1.5,   -2.6,   -1.8,   -1.1,   -0.7,   -2.8,   -2.7,   -2.8,   -2.0,   -1.2,    0.1,   -0.1,    1.0,    0.1,   -0.0,   -0.1,    0.3,    0.2,    0.3,    0.5,   -0.0,   -1.0,   -0.8,   -1.4,   -1.7,   -0.1,    0.2,    0.1,   -0.4,   -0.7,   -2.9,   -3.6,   -3.1,   -0.6,   -0.1,  999.0,    0.4,   -0.1,   -0.4,  999.0,  999.0,  999.0,  999.0,  999.0,  999.0,  999.0,  999.0,  999.0,  999.0,  999.0,  999.0,  999.0,  999.0,  999.0,  999.0,  999.0,  999.0,  999.0,  999.0,  999.0,  999.0,  999.0,  999.0,  999.0,  999.0,  999.0,  999.0,  999.0,  999.0,  999.0,  999.0
2015/05/11 10:10,   -8.4,   -4.3,   -1.9,   -1.5,  999.0,    0.9,    1.0,    0.6,    0.8,    0.8,  999.0,   -0.5,    0.7,    0.7,    0.6,    0.7,    0.5,   -0.5,   -0.8,   -1.8,   -1.2,   -0.9,   -0.2,    0.7,    0.1,   -0.5,   -0.2,   -1.2,   -0.4,   -0.5,   -1.4,   -1.4,   -2.2,  999.0,  999.0,    0.4,    0.7,    0.3,    0.0,    0.1,    0.3,   -0.6,   -1.4,   -1.9,   -1.4,   -0.8,   -1.0,   -2.1,   -1.7,   -1.1,   -1.9,   -2.9,   -2.2,   -1.5,   -3.2,   -2.3,   -1.9,   -0.5,   -0.1,    0.8,   -0.2,    0.7,    0.5,    0.2,    0.3,    0.6,    0.9,    1.1,    0.5,    0.2,   -0.9,   -0.4,   -0.5,   -0.4,   -0.2,    0.3,   -0.1,   -0.4,   -1.6,   -2.8,   -2.3,   -2.9,   -0.8,   -0.4,  999.0,   -0.1,   -0.3,  999.0,  999.0,  999.0,  999.0,  999.0,  999.0,  999.0,  999.0,  999.0,  999.0,  999.0,  999.0,  999.0,  999.0,  999.0,  999.0,  999.0,  999.0,  999.0,  999.0,  999.0,  999.0,  999.0,  999.0,  999.0,  999.0,  999.0,  999.0,  999.0,  999.0,  999.0,  999.0,  999.0
2015/05/11 10:20,  999.0,   -3.6,   -1.9,   -1.5,   -0.4,    0.7,    0.9,    0.5,    0.5,    0.2,   -0.7,   -0.5,   -0.1,   -0.1,   -0.2,    0.3,  999.0,   -0.8,   -1.0,   -1.2,   -1.5,   -0.7,   -0.9,    0.0,   -0.0,   -0.8,  999.0,   -0.9,   -0.9,   -1.1,   -1.1,   -1.2,   -1.7,   -1.2,   -0.8,    0.1,    0.1,    0.1,    0.2,    0.2,   -0.4,   -0.8,  999.0,  999.0,   -1.8,   -0.9,   -1.0,   -1.5,   -2.0,   -0.8,   -2.0,   -2.4,   -2.6,   -2.1,   -2.8,   -2.0,   -1.9,  999.0,  999.0,    0.9,  999.0,   -0.0,   -0.0,    0.1,   -0.3,    0.3,    0.8,  999.0,  999.0,    0.6,   -0.6,   -1.2,    0.1,   -0.5,   -0.4,   -0.1,    0.1,   -0.5,   -0.9,   -0.2,  999.0,   -1.8,   -0.0,   -1.3,    0.7,  999.0,  999.0,  999.0,  999.0,  999.0,  999.0,  999.0,  999.0,  999.0,  999.0,  999.0,  999.0,  999.0,  999.0,  999.0,  999.0,  999.0,  999.0,  999.0,  999.0,  999.0,  -14.7,  999.0,  999.0,  999.0,  999.0,  999.0,  999.0,  999.0,  999.0,  999.0,  999.0,  999.0,  999.0,  999.0
2015/05/11 10:30,  999.0,   -3.0,   -1.6,   -0.8,   -0.1,    0.8,    0.7,    0.8,    0.6,  999.0,   -1.0,   -0.7,    0.3,    0.7,    0.7,    1.0,    0.2,   -0.4,   -0.7,   -1.2,   -1.8,   -0.8,   -0.6,   -0.2,   -0.2,   -0.6,   -0.2,   -0.7,   -0.7,   -0.7,   -0.9,   -1.3,   -1.6,   -1.5,   -0.8,   -0.1,    0.2,    0.2,    0.0,    0.0,   -0.2,    0.0,   -0.7,   -1.1,   -2.0,   -1.4,   -1.0,   -0.9,   -1.2,   -0.8,   -1.4,   -2.9,   -3.3,   -2.1,   -2.2,   -2.9,   -0.7,  999.0,  999.0,    0.2,   -1.3,   -0.4,   -0.0,    0.2,   -0.6,    0.2,    0.6,  999.0,  999.0,    0.2,   -1.3,   -1.1,  999.0,   -0.2,   -0.4,    0.3,    0.5,   -0.2,    0.3,   -0.1,  999.0,   -2.5,   -0.5,  999.0,  999.0,  999.0,  999.0,  999.0,  999.0,  999.0,  999.0,  999.0,  999.0,  999.0,  999.0,  999.0,  999.0,  999.0,  999.0,  999.0,  999.0,  999.0,  999.0,  999.0,  999.0,  -18.2,  -19.2,  999.0,  -12.6,  999.0,  999.0,  999.0,  -14.8,  999.0,  -13.9,  999.0,  999.0,  999.0,  999.0,  999.0
2015/05/11 10:40,   -3.3,   -3.7,   -2.2,   -0.4,   -0.5,    0.8,    1.0,  999.0,  999.0,   -0.3,   -1.1,   -1.3,    0.1,    0.6,    0.7,    0.5,    0.5,   -0.4,   -0.8,   -1.4,   -2.3,   -0.8,  999.0,  999.0,   -0.1,   -0.4,    0.0,   -0.4,   -0.7,   -0.5,   -0.5,   -1.0,   -1.9,   -1.8,   -1.4,   -0.1,    0.4,    0.4,   -0.1,    0.2,   -0.1,   -0.0,   -1.0,   -1.6,   -2.2,   -1.5,   -1.4,   -0.8,   -0.9,   -0.7,   -1.9,   -3.6,   -3.9,   -3.0,   -2.9,   -1.7,   -1.0,   -1.7,  999.0,    0.8,   -0.8,    0.4,    0.7,    0.3,   -0.3,    0.4,    1.0,    0.5,    0.7,   -0.3,   -2.2,   -1.0,   -1.2,   -0.9,   -0.3,   -0.0,   -0.1,   -0.2,   -0.7,   -0.8,   -1.1,   -2.9,  999.0,   -0.5,  999.0,  999.0,  999.0,  999.0,  999.0,  999.0,  999.0,  999.0,  999.0,  999.0,  999.0,  999.0,  999.0,  999.0,  999.0,  999.0,  999.0,  999.0,  999.0,  999.0,  999.0,  -21.1,  -20.3,  -15.2,  999.0,  999.0,  999.0,  999.0,  999.0,  999.0,  999.0,  999.0,  999.0,  999.0,  999.0,  999.0
2015/05/11 10:50,   -3.2,   -4.1,   -3.2,   -1.3,   -0.1,    0.9,    1.2,    0.7,  999.0,   -0.1,   -0.8,   -0.9,   -0.3,  999.0,    0.7,    0.9,   -0.0,   -0.5,   -1.1,   -2.0,   -2.1,   -0.8,   -0.4,    0.6,   -0.3,   -0.4,   -0.5,   -0.6,   -0.7,   -1.0,   -0.8,   -1.0,   -1.6,   -2.0,   -1.2,   -0.5,   -0.9,   -0.1,    0.1,   -0.3,   -0.4,   -0.7,   -1.2,   -1.8,   -1.9,   -1.9,   -0.7,   -0.6,   -1.2,   -0.5,   -1.7,   -3.2,   -2.8,   -2.2,   -2.2,   -1.5,   -0.9,   -0.0,  999.0,    0.3,    0.3,    0.9,    1.0,    0.1,   -0.1,    0.1,    0.5,    0.3,    0.9,   -0.9,   -2.1,   -1.3,   -0.8,  999.0,   -0.2,   -0.2,    0.0,  999.0,   -0.6,   -0.6,   -2.0,   -1.8,  999.0,    0.1,  999.0,  999.0,  999.0,  999.0,  999.0,  999.0,  999.0,  999.0,  999.0,  999.0,  999.0,  999.0,  999.0,  999.0,  999.0,  999.0,  999.0,  999.0,  999.0,  999.0,  999.0,  -20.6,  -23.7,  999.0,  999.0,  999.0,  999.0,  999.0,  999.0,  999.0,  999.0,  999.0,  999.0,  999.0,  999.0,  999.0
2015/05/11 11:00,   -3.2,   -3.9,   -3.1,   -1.3,   -0.2,    1.0,    1.3,    0.7,    0.4,   -0.4,   -0.7,   -0.6,   -0.4,    0.3,    0.4,    0.2,   -0.3,   -1.2,   -1.9,   -2.3,   -2.9,   -0.9,   -0.6,   -0.3,   -0.4,   -0.4,   -0.5,  999.0,   -0.6,   -1.2,   -1.1,   -1.0,   -2.2,   -1.7,   -1.0,   -0.4,   -0.3,  999.0,   -0.4,   -0.3,   -0.2,   -0.4,   -0.9,   -1.6,   -1.3,   -0.8,   -0.8,   -0.8,    0.4,   -0.8,   -2.8,   -2.8,   -2.8,   -2.9,   -1.9,   -1.5,   -1.2,  999.0,  999.0,    0.7,    1.9,    0.4,    1.1,   -0.0,   -0.2,    0.3,    0.4,    0.6,    0.6,   -0.9,   -2.0,   -1.4,   -1.0,  999.0,   -1.2,   -1.5,   -0.1,   -1.8,   -0.4,   -2.0,  999.0,  999.0,  999.0,    0.2,  999.0,  999.0,   -1.1,  999.0,  999.0,  999.0,  999.0,  999.0,  999.0,  999.0,  999.0,  999.0,  999.0,  999.0,  999.0,  999.0,  999.0,  999.0,  999.0,  999.0,  999.0,  999.0,  999.0,  999.0,  999.0,  999.0,  999.0,  999.0,  999.0,  999.0,  999.0,  999.0,  999.0,  999.0,  999.0,  999.0
2015/05/11 11:10,  999.0,   -3.1,   -2.6,   -1.1,   -0.1,    1.2,    1.4,    0.8,    0.5,   -0.1,   -0.7,   -0.5,    0.1,    0.3,    0.1,    0.0,   -1.0,   -1.5,   -1.8,   -2.5,   -2.6,   -1.3,   -0.6,    0.0,  999.0,   -0.6,   -0.3,  999.0,   -0.5,   -1.0,   -1.3,   -1.3,   -2.0,   -1.6,   -1.0,   -0.4,   -0.3,   -0.4,    0.1,    0.1,    0.1,   -0.2,   -1.4,   -1.5,   -1.0,   -0.8,   -0.5,   -0.7,   -0.3,   -1.0,   -3.1,   -3.3,   -2.8,   -2.7,   -3.2,   -1.7,   -1.4,   -0.4,    0.4,    0.3,    1.1,    0.2,    0.9,    0.1,   -0.1,    0.1,    0.4,    0.6,   -0.0,   -1.3,   -2.5,   -1.4,   -0.7,   -0.9,   -1.6,   -1.2,   -0.3,   -1.2,   -0.9,   -3.3,   -3.1,   -1.9,  999.0,   -2.3,  999.0,  999.0,  999.0,  999.0,  999.0,    1.4,  999.0,  999.0,  999.0,  999.0,  999.0,  999.0,  999.0,  999.0,  999.0,  999.0,  999.0,  999.0,  999.0,  999.0,  999.0,  999.0,  999.0,  999.0,  999.0,  999.0,  999.0,  999.0,  999.0,  999.0,  999.0,  999.0,  999.0,  999.0,  999.0,  999.0
2015/05/11 11:20,  999.0,   -2.7,   -3.5,   -1.3,   -0.5,    1.1,    1.7,    0.8,    0.7,    0.3,   -0.7,   -0.3,    0.2,    0.1,    0.3,    0.1,   -0.8,   -1.1,   -1.1,   -2.3,   -2.0,   -1.4,   -0.5,   -0.1,   -0.4,   -0.5,   -0.6,   -0.3,   -0.6,   -1.3,   -1.7,   -0.8,   -1.4,   -1.4,   -1.4,   -0.6,   -0.5,   -0.3,    0.6,    0.5,    0.5,    0.0,   -1.3,   -1.3,   -1.6,   -1.2,   -0.5,   -0.7,   -0.5,   -0.8,   -2.8,   -3.3,   -3.5,   -2.9,   -3.3,   -1.0,   -1.8,   -0.5,  999.0,    0.9,    0.7,    0.3,    0.5,    0.0,   -0.1,   -0.0,    0.4,    0.4,   -0.7,   -1.7,   -2.3,   -1.0,   -1.1,   -0.7,   -0.6,   -0.3,    0.6,    0.2,   -1.4,   -3.9,  999.0,  999.0,  999.0,  999.0,  999.0,  999.0,  999.0,  999.0,  999.0,  999.0,  999.0,  999.0,  999.0,  999.0,  999.0,  999.0,  999.0,  999.0,  999.0,  999.0,  999.0,  999.0,  999.0,  999.0,  999.0,  999.0,  999.0,  999.0,  999.0,  999.0,  999.0,  999.0,  999.0,  999.0,  999.0,  999.0,  999.0,  999.0,  999.0,  999.0
2015/05/11 11:30,  999.0,   -4.5,   -4.4,   -1.5,   -0.5,    0.8,    1.5,    1.0,    0.7,    0.3,   -0.7,   -0.0,  999.0,    0.2,    0.4,    0.2,   -0.4,   -0.6,   -1.0,   -2.3,   -1.6,   -1.0,   -0.5,   -0.4,   -0.6,   -0.6,   -0.7,   -0.2,   -0.2,   -1.5,   -1.4,   -0.6,   -0.8,   -0.9,   -1.2,   -0.8,   -1.1,   -1.1,    0.0,    0.4,    0.4,    0.4,   -0.5,  999.0,   -1.6,   -1.4,   -0.6,   -0.6,   -0.7,   -0.6,   -1.5,   -2.9,   -3.5,   -2.9,   -3.3,   -0.8,   -1.4,   -0.5,    0.3,    0.9,    0.6,    0.3,    0.6,    0.1,   -0.2,    0.3,    0.3,    0.1,   -1.4,   -2.3,   -2.2,   -1.3,   -1.1,   -1.1,   -0.3,   -0.2,    0.3,   -0.1,   -1.3,   -3.6,  999.0,  999.0,  999.0,   -1.7,   -0.3,   -1.1,  999.0,  999.0,  999.0,  999.0,  999.0,  999.0,  999.0,  999.0,  999.0,  999.0,  999.0,  999.0,  999.0,  999.0,  999.0,  999.0,  999.0,  999.0,   -9.3,  999.0,  999.0,  999.0,  999.0,  999.0,  999.0,  999.0,  999.0,  999.0,  999.0,  999.0,  999.0,  999.0,  999.0,  999.0
2015/05/11 11:40,  999.0,  999.0,   -3.6,   -1.5,  999.0,    0.6,    1.4,  999.0,    0.9,    0.3,   -0.6,  999.0,  999.0,  999.0,    0.2,  999.0,   -0.5,   -0.5,   -1.2,   -2.8,   -1.6,   -1.2,   -0.5,  999.0,   -0.5,   -0.6,  999.0,   -0.2,   -0.2,   -1.2,   -1.3,   -0.5,   -0.6,   -0.7,   -1.0,   -1.1,   -1.6,   -1.5,   -0.4,    0.6,    0.7,    0.6,  999.0,   -0.7,   -1.4,   -1.0,   -0.6,   -0.6,   -0.8,   -0.5,   -1.1,   -2.7,   -3.4,   -2.7,   -3.0,   -0.7,   -1.0,   -0.7,  999.0,    0.6,    0.7,    0.2,    0.6,    0.1,    0.4,    0.5,    0.3,    0.0,   -1.6,   -2.9,   -2.0,  999.0,   -1.0,   -0.7,    0.1,    0.1,   -0.3,   -0.3,   -0.6,   -3.0,   -2.1,  999.0,   -0.7,  999.0,  999.0,  999.0,  999.0,  999.0,  999.0,  999.0,  999.0,  999.0,  999.0,  999.0,  999.0,  999.0,  999.0,  999.0,  999.0,  999.0,  999.0,  999.0,  999.0,  999.0,  999.0,  999.0,  999.0,  999.0,  999.0,  999.0,  999.0,  999.0,  999.0,  999.0,  999.0,  999.0,  999.0,  999.0,  999.0,  999.0
2015/05/11 11:50,   -6.5,   -3.2,   -3.2,   -2.0,   -0.9,    0.5,    1.8,    0.9,    0.9,    0.3,   -0.4,   -0.4,    0.1,  999.0,    0.5,   -0.1,   -0.4,   -0.6,   -1.1,   -2.0,   -1.7,   -1.0,   -0.9,  999.0,   -0.8,   -0.8,   -0.4,   -0.1,    0.1,   -1.1,   -1.1,   -0.5,   -0.5,   -0.4,   -1.3,   -1.8,   -2.0,   -1.3,   -0.6,    0.4,    0.3,    0.4,   -0.5,   -0.8,   -1.3,   -1.1,   -0.7,   -0.6,   -1.0,   -0.5,   -1.4,   -3.0,   -3.9,   -3.4,   -3.2,   -1.1,   -1.5,   -1.2,  999.0,    0.4,    0.7,    0.6,    0.8,    0.0,    0.3,    0.4,    0.4,   -0.2,   -1.4,   -2.2,   -1.5,   -0.9,   -1.2,   -0.5,    0.2,    0.1,   -0.5,   -0.5,   -1.0,   -2.3,   -4.8,  999.0,  999.0,  999.0,  999.0,  999.0,  999.0,  999.0,  999.0,  999.0,  999.0,  999.0,  999.0,  999.0,  999.0,  999.0,  999.0,  999.0,  999.0,  999.0,  999.0,  999.0,  999.0,  999.0,  999.0,  999.0,  999.0,  -20.2,  999.0,  999.0,  999.0,  999.0,  999.0,  999.0,  999.0,  999.0,  999.0,  999.0,  999.0,  999.0
2015/05/11 12:00,   -3.4,   -2.5,   -3.1,   -1.8,   -1.0,   -0.0,    1.5,    1.1,    0.8,    0.4,  999.0,   -0.6,    0.3,    0.3,    0.1,   -0.1,   -0.6,   -0.8,   -1.3,   -3.1,   -1.8,   -1.1,   -0.8,   -0.5,   -0.1,   -0.2,    0.2,    0.3,    0.2,   -0.8,   -0.9,   -0.5,   -0.1,   -0.2,   -1.2,   -2.0,   -2.4,   -1.8,   -0.8,    0.3,   -0.2,    0.0,   -1.0,   -1.0,   -1.1,   -0.9,   -1.0,   -0.6,   -1.2,   -0.5,   -1.9,   -3.4,   -3.8,   -3.5,   -3.3,   -1.5,   -2.1,   -1.7,   -0.4,    0.0,    0.9,    1.1,    0.8,    0.1,    0.1,    0.2,    0.5,   -0.1,   -0.9,   -2.0,   -1.5,   -0.5,   -0.9,   -0.1,    0.3,   -0.0,   -0.3,   -0.7,   -1.8,   -2.0,   -4.6,   -2.2,  999.0,  999.0,  999.0,  999.0,   -1.0,  999.0,  999.0,  999.0,  999.0,  999.0,  999.0,  999.0,  999.0,  999.0,  999.0,  999.0,  999.0,  -12.3,  999.0,  999.0,  999.0,  999.0,  -16.1,  999.0,  -20.0,  -20.0,  999.0,  999.0,  999.0,  999.0,  999.0,  999.0,  999.0,  999.0,  999.0,  999.0,  999.0,  999.0
2015/05/11 12:10,  999.0,   -2.9,   -3.6,   -2.5,   -2.0,  999.0,    0.5,    0.7,    1.0,  999.0,   -0.2,   -0.3,    0.9,    0.8,    0.6,   -0.2,   -0.5,   -1.1,   -1.4,   -3.8,   -3.4,   -1.5,   -0.8,   -0.6,   -0.1,   -0.6,    0.6,    0.8,    0.6,   -0.6,    0.1,   -0.4,   -0.1,    0.1,   -2.0,   -2.2,   -2.6,   -2.4,   -1.1,    0.4,    0.7,  999.0,   -1.2,   -0.9,   -1.1,   -0.9,   -1.2,   -1.0,   -1.2,   -0.5,   -2.2,   -3.5,   -3.5,   -3.5,   -3.4,   -2.0,   -1.8,   -1.6,   -1.0,   -0.1,    1.0,    0.9,    0.9,    0.1,    0.3,    0.4,    0.5,    0.0,   -0.5,   -1.8,   -0.9,   -0.5,   -0.1,    0.1,    0.3,   -0.1,    0.1,   -0.4,   -1.5,   -0.9,   -2.2,   -1.0,  999.0,    0.5,  999.0,  999.0,   -0.8,  999.0,  999.0,  999.0,  999.0,  999.0,  999.0,  999.0,  999.0,  999.0,  999.0,  999.0,  -11.6,  -12.1,  999.0,  -16.7,  999.0,  999.0,  999.0,  999.0,  -20.0,  -19.0,  999.0,  999.0,  999.0,  999.0,  999.0,  999.0,  999.0,  999.0,  999.0,  999.0,  999.0,  999.0
2015/05/11 12:20,  999.0,   -3.0,   -3.9,   -2.9,   -2.1,  999.0,    0.4,    0.5,    0.6,    0.5,   -0.5,   -0.1,    1.2,    1.0,    0.4,   -0.0,   -0.5,   -1.2,   -1.2,   -2.3,   -2.8,   -1.6,   -0.7,   -0.7,   -0.5,    0.1,    0.4,    1.1,    0.8,   -0.1,    0.1,   -0.1,    0.2,    0.1,   -2.1,   -2.7,   -3.2,   -2.7,   -1.1,  999.0,    0.4,  999.0,  999.0,   -1.9,   -1.5,   -1.7,   -1.3,   -0.8,   -0.8,   -0.8,   -2.9,   -3.4,   -3.5,   -3.7,   -3.3,   -3.6,   -1.9,   -1.5,   -0.8,   -0.2,  999.0,    0.8,    0.8,    0.2,    0.5,    0.5,    0.5,    0.1,   -0.8,   -1.8,   -0.3,   -0.6,   -0.2,   -0.2,   -0.3,   -0.8,   -0.7,   -0.8,   -0.7,   -0.4,   -1.4,  999.0,  999.0,   -0.2,   -0.0,  999.0,  999.0,  999.0,   -0.7,  999.0,  999.0,  999.0,  999.0,  999.0,   -4.0,  999.0,  999.0,   -8.9,  -11.6,  999.0,  999.0,  999.0,  999.0,  999.0,  999.0,  999.0,  -20.2,  -20.0,  999.0,  999.0,  999.0,  999.0,  999.0,  999.0,  999.0,  999.0,  999.0,  999.0,  999.0,  999.0
2015/05/11 12:30,   -2.5,   -3.3,   -3.6,   -3.1,   -2.3,   -0.9,   -0.1,    0.3,    0.7,    0.9,    0.2,    0.4,    1.0,    0.8,    0.5,   -0.5,   -0.6,   -1.1,   -1.5,   -3.1,   -2.4,   -1.0,   -0.8,   -0.5,   -0.4,    0.4,    0.4,    0.9,    1.2,    0.3,    0.8,   -0.3,   -0.1,   -0.4,   -1.7,   -2.7,   -3.7,   -2.8,   -2.1,   -1.3,   -0.5,   -0.2,   -1.0,   -1.8,   -1.9,   -1.5,   -1.0,   -0.9,   -0.8,   -1.0,   -2.8,   -2.7,   -2.7,   -3.0,   -2.0,   -2.4,   -1.6,   -1.1,   -0.0,    0.0,    0.5,    0.5,    0.6,   -0.1,    0.2,   -0.1,    0.4,   -0.3,   -0.8,   -2.1,   -0.3,   -0.8,   -0.6,   -0.3,   -0.3,   -0.6,   -1.0,   -0.9,   -0.3,   -0.7,  999.0,   -2.9,  999.0,    0.4,    0.7,  999.0,   -1.7,  999.0,   -0.5,  999.0,  999.0,  999.0,  999.0,  999.0,   -1.6,  999.0,  999.0,   -9.3,  -11.6,  999.0,  999.0,  999.0,  999.0,  999.0,  999.0,  999.0,  -19.8,  -20.5,  999.0,  999.0,  999.0,  999.0,  999.0,  999.0,  999.0,  999.0,  999.0,  999.0,  999.0,  999.0
2015/05/11 12:40,   -3.4,   -3.1,   -3.0,   -2.5,   -2.0,   -1.2,   -0.4,    0.4,    0.7,    1.2,    0.2,    0.2,    0.7,    0.7,    0.6,   -0.3,   -0.9,   -0.7,   -1.5,   -3.9,   -2.7,   -1.1,   -0.4,   -0.3,   -0.3,    0.9,    0.7,    1.3,    1.1,    0.3,    0.5,    0.1,   -0.1,    0.0,   -1.2,   -2.6,   -3.4,   -3.1,   -2.4,   -1.7,   -0.7,   -0.2,   -0.5,   -1.4,   -1.7,   -1.7,   -0.9,   -0.9,   -0.8,   -0.7,   -2.2,   -2.2,   -1.9,   -2.1,   -2.2,   -2.0,   -1.3,   -0.7,   -0.5,    0.4,    1.1,    0.8,    0.6,    0.1,   -0.2,   -0.2,    0.2,   -0.6,   -0.5,   -2.2,   -0.4,   -0.6,   -1.3,   -1.2,    0.0,    0.1,   -0.9,   -1.4,   -0.5,   -0.7,   -2.5,   -1.5,   -1.3,    0.2,  999.0,  999.0,  999.0,  999.0,  999.0,  999.0,  999.0,  999.0,  999.0,  999.0,  999.0,  999.0,   -9.0,  -10.0,  999.0,  999.0,  999.0,  999.0,  999.0,  999.0,  999.0,  999.0,  -19.7,  -21.2,  999.0,  999.0,  999.0,  999.0,  999.0,  999.0,  999.0,  999.0,  999.0,  999.0,  999.0,  999.0
2015/05/11 12:50,   -1.9,   -3.1,   -3.2,   -2.7,   -2.0,   -0.9,   -0.5,    0.7,    1.2,    1.5,    0.5,    0.2,    0.8,    0.8,    0.5,   -0.1,   -1.3,   -0.8,   -1.9,   -3.5,   -3.7,   -1.4,   -0.5,   -0.0,   -0.2,    0.8,    0.9,    1.3,    1.2,    0.5,    0.7,    0.1,    0.5,   -0.2,   -1.4,   -2.0,   -2.7,   -2.4,   -1.9,   -1.4,   -0.6,   -0.1,   -0.2,   -1.0,   -1.6,   -1.6,   -0.9,   -0.7,   -0.6,   -0.4,  999.0,   -1.9,   -1.7,   -1.4,   -1.9,   -2.1,   -1.7,   -0.9,   -0.7,    0.2,    1.0,    0.6,    0.5,    0.0,   -0.1,    0.2,    0.3,   -0.8,   -0.5,   -1.9,   -0.6,   -0.7,   -1.7,   -1.6,    0.2,   -0.4,   -1.9,   -1.8,   -1.6,   -1.3,   -2.5,   -1.6,   -3.5,  999.0,  999.0,  999.0,  999.0,  999.0,   -2.3,  999.0,  999.0,  999.0,  999.0,  999.0,  999.0,  999.0,   -8.9,  -10.4,  999.0,  999.0,  999.0,  999.0,  999.0,  999.0,  999.0,  999.0,  -19.1,  -20.4,  -17.3,  999.0,  999.0,  999.0,  999.0,  999.0,  999.0,  999.0,  999.0,  999.0,  999.0,  999.0
2015/05/11 13:00,  999.0,  999.0,  999.0,  999.0,  999.0,  999.0,  999.0,  999.0,  999.0,  999.0,  999.0,  999.0,  999.0,  999.0,  999.0,  999.0,  999.0,  999.0,  999.0,  999.0,  999.0,  999.0,  999.0,  999.0,  999.0,  999.0,  999.0,  999.0,  999.0,  999.0,  999.0,  999.0,  999.0,  999.0,  999.0,  999.0,  999.0,  999.0,  999.0,  999.0,  999.0,  999.0,  999.0,  999.0,  999.0,  999.0,  999.0,  999.0,  999.0,  999.0,  999.0,  999.0,  999.0,  999.0,  999.0,  999.0,  999.0,  999.0,  999.0,  999.0,  999.0,  999.0,  999.0,  999.0,  999.0,  999.0,  999.0,  999.0,  999.0,  999.0,  999.0,  999.0,  999.0,  999.0,  999.0,  999.0,  999.0,  999.0,  999.0,  999.0,  999.0,  999.0,  999.0,  999.0,  999.0,  999.0,  999.0,  999.0,  999.0,  999.0,  999.0,  999.0,  999.0,  999.0,  999.0,  999.0,  999.0,  999.0,  999.0,  999.0,  999.0,  999.0,  999.0,  999.0,  999.0,  999.0,  999.0,  999.0,  999.0,  999.0,  999.0,  999.0,  999.0,  999.0,  999.0,  999.0,  999.0,  999.0,  999.0,  999.0
2015/05/11 13:10,  999.0,  999.0,  999.0,  999.0,  999.0,  999.0,  999.0,  999.0,  999.0,  999.0,  999.0,  999.0,  999.0,  999.0,  999.0,  999.0,  999.0,  999.0,  999.0,  999.0,  999.0,  999.0,  999.0,  999.0,  999.0,  999.0,  999.0,  999.0,  999.0,  999.0,  999.0,  999.0,  999.0,  999.0,  999.0,  999.0,  999.0,  999.0,  999.0,  999.0,  999.0,  999.0,  999.0,  999.0,  999.0,  999.0,  999.0,  999.0,  999.0,  999.0,  999.0,  999.0,  999.0,  999.0,  999.0,  999.0,  999.0,  999.0,  999.0,  999.0,  999.0,  999.0,  999.0,  999.0,  999.0,  999.0,  999.0,  999.0,  999.0,  999.0,  999.0,  999.0,  999.0,  999.0,  999.0,  999.0,  999.0,  999.0,  999.0,  999.0,  999.0,  999.0,  999.0,  999.0,  999.0,  999.0,  999.0,  999.0,  999.0,  999.0,  999.0,  999.0,  999.0,  999.0,  999.0,  999.0,  999.0,  999.0,  999.0,  999.0,  999.0,  999.0,  999.0,  999.0,  999.0,  999.0,  999.0,  999.0,  999.0,  999.0,  999.0,  999.0,  999.0,  999.0,  999.0,  999.0,  999.0,  999.0,  999.0,  999.0
2015/05/11 13:20,  999.0,  999.0,   -1.9,   -2.3,   -1.2,   -0.6,  999.0,   -0.2,    0.7,    0.2,    0.2,    0.7,    0.8,    2.2,    0.9,   -0.6,   -1.5,   -3.0,   -2.8,   -4.0,   -4.6,   -0.3,    0.7,    0.5,    0.6,    0.6,    0.9,    1.0,   -0.4,    1.1,   -0.1,    1.2,    0.8,   -0.8,   -1.5,   -0.6,   -0.2,   -1.3,   -1.5,  999.0,    0.5,    1.1,   -0.6,   -0.9,  999.0,   -1.1,   -0.4,   -0.7,   -0.2,   -1.2,   -0.6,   -1.2,   -1.0,   -0.7,   -2.5,   -2.2,  999.0,  999.0,   -0.7,   -1.5,    0.4,    1.0,    0.5,   -0.0,   -0.6,    0.0,   -0.8,   -1.3,   -1.7,   -1.9,   -1.6,   -2.4,  999.0,  999.0,  999.0,  999.0,   -1.3,   -1.4,  999.0,   -2.7,   -3.5,  999.0,   -1.3,  999.0,   -1.1,   -1.3,  999.0,  999.0,  999.0,  999.0,  999.0,  999.0,  999.0,  999.0,  999.0,  999.0,   -8.9,  -11.2,  999.0,  999.0,  999.0,  999.0,  999.0,  999.0,  999.0,  999.0,  -18.9,  -20.4,  -20.0,  999.0,  999.0,  999.0,  999.0,  999.0,  999.0,  -14.9,  999.0,  999.0,  999.0,  999.0
2015/05/11 13:30,  999.0,  999.0,   -1.2,   -2.5,   -1.6,   -0.5,   -0.2,   -0.4,    0.1,   -0.4,   -0.3,    1.1,    2.1,    2.5,    1.4,    0.5,   -0.7,   -2.4,   -2.2,   -2.5,   -1.5,    0.2,    1.6,    0.9,    0.6,    0.4,    0.7,    0.6,   -0.1,    1.3,   -0.1,    0.5,    0.3,   -0.6,   -1.2,   -0.8,    0.0,   -1.6,   -1.8,   -0.5,  999.0,    0.6,   -0.4,   -1.0,   -1.0,   -1.0,   -0.5,   -0.7,   -0.6,   -1.2,   -1.3,   -1.3,   -1.5,   -1.4,   -2.3,   -2.6,   -1.2,   -0.7,   -0.5,   -0.8,    0.8,    0.7,    0.5,    0.0,   -0.6,   -0.2,   -0.7,   -1.4,   -1.4,   -1.7,   -1.5,   -2.4,  999.0,  999.0,  999.0,  999.0,  999.0,   -2.0,  999.0,  999.0,  999.0,  999.0,  999.0,  999.0,  999.0,  999.0,  999.0,  999.0,  999.0,  999.0,  999.0,  999.0,  999.0,  999.0,  999.0,  999.0,   -8.6,  999.0,  999.0,  999.0,  999.0,  999.0,  999.0,  999.0,  999.0,  999.0,  -18.6,  -20.6,  999.0,  999.0,  999.0,  999.0,  999.0,  999.0,  999.0,  999.0,  999.0,  999.0,  999.0,  999.0
2015/05/11 13:40,  999.0,  999.0,   -0.8,   -2.2,   -2.0,   -0.5,   -0.1,    0.5,    0.1,    0.1,    0.4,    1.2,    2.1,    1.8,    0.9,    0.2,   -1.2,   -1.9,   -2.6,   -2.4,   -1.9,    0.5,    1.5,    1.2,    0.5,    0.3,    0.6,    0.5,    0.7,   -0.1,    0.0,   -0.4,   -0.3,   -0.9,   -0.9,   -1.0,   -0.1,   -1.7,   -1.4,   -0.4,    0.2,    0.5,   -0.5,   -1.2,   -1.2,   -0.9,   -0.7,   -0.3,   -0.2,   -0.9,   -0.9,   -0.9,   -1.1,   -1.8,   -2.3,   -2.3,   -1.6,   -1.1,   -0.0,   -0.2,    0.8,    0.1,    0.3,   -0.2,   -0.1,   -0.2,   -0.7,   -1.4,   -1.9,   -2.3,   -1.6,   -3.0,  999.0,   -1.2,   -2.7,  999.0,  999.0,   -2.2,   -2.4,   -2.3,   -2.9,  999.0,   -1.6,  999.0,   -1.9,  999.0,  999.0,  999.0,  999.0,  999.0,  999.0,  999.0,  999.0,  999.0,  999.0,  999.0,   -8.0,   -9.7,  999.0,  999.0,  999.0,  999.0,  999.0,  999.0,  999.0,  999.0,  -19.0,  -20.9,  -19.2,  999.0,  999.0,  999.0,  999.0,  999.0,  999.0,  999.0,  999.0,  999.0,  999.0,  999.0
2015/05/11 13:50,  -10.1,   -1.1,   -1.4,   -0.7,   -0.2,    0.4,    0.2,    0.1,    0.3,    0.1,   -0.1,    0.6,    1.4,    1.3,    0.1,   -0.3,   -1.2,   -2.1,   -2.5,   -2.2,   -1.9,    0.5,    1.6,    1.0,    0.3,    0.4,    0.2,    0.6,    0.3,    0.3,    0.1,   -1.3,   -0.3,   -1.2,   -1.5,   -0.8,   -0.1,   -0.5,   -1.1,    0.3,    0.9,    0.7,   -0.1,   -0.5,   -0.9,   -0.4,   -0.7,   -0.5,   -0.1,   -1.2,   -0.9,   -1.0,   -0.8,   -1.5,   -2.1,   -2.1,   -1.1,   -0.7,   -0.4,    1.3,    1.2,    0.3,    0.0,   -0.3,    0.1,   -0.5,    0.0,   -1.0,   -1.5,   -1.9,   -2.4,   -2.4,   -2.8,   -1.6,   -2.1,   -0.1,   -2.3,   -1.5,   -1.7,   -2.2,   -3.2,  999.0,   -1.0,   -1.7,   -2.1,    0.4,  999.0,  999.0,   -0.3,  999.0,  999.0,   -3.7,  999.0,  999.0,   -2.9,  999.0,   -8.1,  -10.4,  999.0,  999.0,  999.0,  999.0,  999.0,  999.0,  999.0,  999.0,  -19.2,  -20.8,  -20.6,  999.0,  999.0,  999.0,  999.0,  999.0,  999.0,  -15.4,  999.0,  999.0,  999.0,  -15.0
2015/05/11 14:00,  999.0,   -1.6,   -1.1,   -0.0,    0.0,    0.6,    1.0,   -0.2,   -0.2,    0.5,   -0.6,    0.3,    1.7,    1.4,    0.2,   -0.3,   -1.2,   -3.4,   -2.7,   -1.3,   -2.7,   -0.4,    0.8,    1.0,    0.6,    0.5,    0.7,    0.8,  999.0,   -0.2,   -0.2,   -1.2,   -1.2,   -1.8,   -2.0,   -0.9,   -0.5,   -0.6,   -0.6,    0.4,    0.9,    0.8,    0.1,   -0.4,   -1.0,   -0.8,   -1.0,   -0.8,   -0.6,   -2.6,   -2.5,   -1.9,   -1.3,   -2.2,   -2.4,   -2.8,   -1.0,   -0.6,   -0.5,    0.8,    0.2,    0.3,   -0.3,   -0.5,   -0.3,   -0.5,   -0.6,   -0.8,   -0.9,   -2.2,   -2.4,  999.0,   -1.6,   -2.2,   -0.4,   -1.4,   -2.2,   -0.9,  999.0,   -1.9,   -2.8,  999.0,  999.0,   -0.7,   -0.7,  999.0,  999.0,  999.0,  999.0,  999.0,  999.0,  999.0,   -2.5,  999.0,   -3.3,   -5.8,   -8.7,  -11.0,  999.0,  999.0,  999.0,  999.0,  999.0,  999.0,  999.0,  999.0,  -18.7,  -21.1,  -20.0,  999.0,  999.0,  999.0,  999.0,  999.0,  999.0,  999.0,  999.0,  999.0,  999.0,  999.0
2015/05/11 14:10,  999.0,   -2.1,   -0.8,   -0.4,   -0.2,    0.1,    0.5,    0.4,    0.7,    1.3,    0.1,    0.6,    1.5,    2.6,    0.3,   -0.3,   -0.9,   -2.1,   -2.3,   -1.5,   -2.7,   -0.7,    0.4,    1.1,    0.6,    0.6,    0.6,    0.9,    0.3,   -0.1,   -0.3,   -0.9,   -1.7,   -1.6,   -2.2,   -0.9,   -0.5,   -0.3,   -1.1,   -0.2,    0.5,    0.3,    0.0,   -0.7,   -1.3,   -1.2,   -1.6,   -0.9,   -2.0,   -3.3,   -3.0,   -2.7,   -2.1,   -2.7,   -3.0,   -2.7,   -1.6,   -0.2,   -0.1,    0.5,    0.7,    0.6,    0.4,   -0.2,   -0.5,   -0.7,   -0.6,   -0.6,   -1.1,   -1.4,   -1.6,   -0.4,  999.0,   -2.5,   -1.1,   -1.1,   -1.5,   -0.8,    0.1,   -1.3,   -2.3,  999.0,  999.0,   -0.6,    0.2,  999.0,  999.0,    0.1,  999.0,  999.0,  999.0,  999.0,  999.0,  999.0,   -3.8,   -5.5,   -9.6,  999.0,  999.0,  999.0,  999.0,  999.0,  999.0,  999.0,  999.0,  999.0,  -18.3,  -20.2,  -20.5,  999.0,  999.0,  -17.5,  999.0,  999.0,  999.0,  999.0,  999.0,  999.0,  999.0,  999.0
2015/05/11 14:20,   -0.3,   -4.0,   -1.5,   -1.4,   -0.6,   -0.5,    0.7,    0.6,    0.9,    1.5,    1.1,    0.3,    1.5,    1.3,   -0.6,   -0.7,   -1.0,   -0.9,   -1.1,   -0.9,   -1.8,   -0.8,    0.3,    1.0,    1.5,    1.5,    1.0,    1.7,    1.5,    0.3,    0.5,   -0.6,   -0.8,   -1.2,   -1.9,   -0.6,   -1.2,   -0.3,   -0.5,   -0.3,    1.0,    1.5,   -0.4,   -0.7,   -1.7,  999.0,   -1.4,   -1.4,   -2.9,   -3.2,   -3.0,   -3.2,   -3.1,   -2.9,   -2.7,   -1.8,   -1.1,   -0.2,    0.1,    0.4,    0.7,    0.5,    0.5,   -0.1,   -0.4,   -0.4,    0.1,   -1.1,   -1.3,   -1.0,   -0.6,   -0.3,   -0.3,  999.0,   -0.3,   -0.4,   -0.3,   -0.5,    0.1,   -1.3,  999.0,  999.0,  999.0,   -0.4,   -1.1,  999.0,  999.0,    0.5,  999.0,  999.0,  999.0,  999.0,  999.0,  999.0,  999.0,  999.0,  999.0,  999.0,  999.0,  999.0,  999.0,  999.0,  999.0,  999.0,  999.0,  999.0,  -19.2,  -20.9,  999.0,  999.0,  999.0,  999.0,  999.0,  999.0,  999.0,  999.0,  999.0,  999.0,  999.0,  999.0
2015/05/11 14:30,  -10.2,   -2.9,   -2.2,   -2.6,   -1.0,   -1.0,   -0.0,   -0.5,    0.7,    2.0,    0.6,    0.1,    0.5,    1.4,   -0.2,   -0.5,   -0.4,   -1.3,   -1.4,   -0.7,   -2.3,   -1.2,    0.4,    1.2,    2.3,    1.7,    1.5,    0.9,    0.4,    0.2,    0.0,   -0.3,   -0.3,   -0.4,   -0.9,   -0.4,   -0.6,   -0.4,   -0.3,   -0.6,   -0.2,    0.6,    0.3,   -0.5,   -1.2,   -1.9,   -1.1,   -1.1,   -1.8,   -2.3,   -3.6,   -3.5,   -3.5,   -2.7,   -2.6,   -1.7,   -0.7,   -0.4,    0.6,    0.3,    1.0,    0.8,    0.4,   -0.1,   -0.2,   -0.3,    0.1,   -0.9,   -1.2,   -1.1,   -0.8,   -0.3,   -0.6,   -0.0,   -0.6,   -0.7,   -0.5,  999.0,   -0.1,   -0.9,  999.0,  999.0,   -0.1,   -0.1,   -1.1,  999.0,  999.0,  999.0,  999.0,  999.0,  999.0,  999.0,  999.0,  999.0,  999.0,   -5.5,  999.0,  999.0,  999.0,  999.0,  999.0,  999.0,  999.0,  999.0,  999.0,  -17.7,  -20.1,  -22.0,  999.0,  999.0,  999.0,  999.0,  999.0,  999.0,  999.0,  999.0,  999.0,  999.0,  999.0,  999.0
2015/05/11 14:40,   -7.0,   -2.7,   -2.1,   -1.9,   -1.5,   -0.9,   -1.1,   -1.2,    0.2,    1.2,    0.6,    0.6,    0.6,    1.9,    0.0,   -1.6,   -1.6,   -1.7,   -1.8,   -2.0,   -2.8,   -1.5,   -0.3,    1.1,    1.7,    1.2,    0.9,    0.2,   -0.8,    0.2,    0.3,    0.2,    0.1,   -0.1,   -0.5,   -0.3,   -0.2,    0.1,    0.6,   -0.1,    0.3,    0.8,    0.8,    0.6,   -0.2,   -1.0,   -0.8,   -1.6,   -0.9,   -1.0,   -3.0,   -2.9,   -3.3,   -2.5,   -2.1,   -1.5,   -0.9,   -0.2,   -0.4,    0.4,    0.7,    0.7,    0.2,    0.1,   -0.3,    0.1,   -0.0,   -0.7,   -1.9,   -1.3,   -0.6,   -0.8,   -0.9,   -0.3,   -0.1,   -1.5,   -1.2,   -2.8,   -1.3,   -0.9,  999.0,  999.0,    1.5,   -0.1,   -0.8,  999.0,  999.0,  999.0,  999.0,  999.0,  999.0,  999.0,  999.0,  999.0,   -2.5,   -9.0,  999.0,  999.0,  999.0,  999.0,  999.0,  999.0,  999.0,  999.0,  999.0,  999.0,  -19.4,  -21.8,  999.0,  999.0,  999.0,  -18.7,  999.0,  999.0,  999.0,  999.0,  999.0,  999.0,  999.0,  999.0
2015/05/11 14:50,    0.1,    0.3,   -2.7,   -1.9,   -1.6,   -0.9,   -1.4,   -0.5,    0.1,    0.9,    1.0,    0.4,    1.2,    1.0,   -0.9,   -2.2,   -1.5,   -1.1,   -1.0,   -1.2,   -1.7,   -2.7,   -0.7,    0.2,   -0.7,   -0.4,   -0.5,   -0.2,   -0.7,   -0.5,   -0.6,   -1.1,    0.1,   -0.3,   -0.4,    0.5,   -0.0,    0.2,    0.3,    0.0,    0.8,    0.4,   -0.5,   -0.9,   -1.2,   -1.3,   -1.2,  999.0,   -1.9,   -1.5,   -2.3,   -3.0,   -3.0,   -3.1,   -2.3,   -1.5,   -0.7,   -0.5,   -0.2,    0.7,    0.7,    0.5,   -0.0,    0.1,   -0.5,   -0.1,   -0.0,   -0.8,   -1.7,   -2.0,   -1.1,   -1.5,   -1.4,   -1.6,   -0.1,   -0.4,   -1.6,   -1.9,  999.0,   -1.0,  999.0,  999.0,    1.6,    0.4,   -0.6,  999.0,  999.0,  999.0,  999.0,  999.0,  999.0,  999.0,  999.0,  999.0,  999.0,  999.0,  999.0,  999.0,  999.0,  999.0,  999.0,  999.0,  999.0,  999.0,  999.0,  999.0,  -17.5,  -20.0,  999.0,  999.0,  999.0,  999.0,  999.0,  999.0,  999.0,  999.0,  999.0,  999.0,  999.0,  999.0
2015/05/11 15:00,    0.0,    0.1,   -3.3,   -2.4,   -0.7,   -0.0,    0.8,    0.8,    0.7,    1.2,    1.1,    0.3,    1.8,    0.8,   -1.0,   -2.2,   -1.0,   -0.7,   -1.4,   -1.0,   -1.5,   -2.1,   -0.3,    0.4,   -0.6,   -0.4,   -0.5,    0.1,   -0.2,   -0.6,   -0.5,   -0.8,   -0.8,   -0.4,   -0.3,    0.7,    0.7,    0.4,   -0.3,    0.2,    0.3,    0.9,   -0.1,   -0.5,   -1.3,   -1.4,   -1.2,   -1.9,   -2.4,   -2.6,   -2.2,   -2.2,   -2.4,   -3.0,   -2.0,   -0.5,    0.3,   -0.1,    0.8,    0.7,    0.4,   -0.1,   -0.2,   -0.1,   -0.4,   -0.5,   -0.8,   -0.7,   -2.1,   -2.2,   -2.2,   -1.8,   -1.5,   -1.8,  999.0,  999.0,   -1.9,   -1.9,   -2.6,   -2.8,  999.0,  999.0,   -0.4,   -0.1,  999.0,    0.8,    0.2,  999.0,  999.0,  999.0,  999.0,  999.0,  999.0,  999.0,  999.0,  999.0,  999.0,  999.0,  999.0,  999.0,  999.0,  999.0,  999.0,  999.0,  999.0,  -13.8,  -17.1,  -19.9,  999.0,  999.0,  999.0,  999.0,  999.0,  999.0,  999.0,  999.0,  999.0,  999.0,  999.0,  999.0
2015/05/11 15:10,    0.0,    0.1,   -2.5,   -2.6,   -1.1,    0.2,    0.9,    1.4,    1.0,    1.5,    0.5,    0.4,    1.5,    0.0,   -1.4,   -2.2,   -1.3,   -1.1,   -2.1,   -1.5,   -1.9,   -1.9,   -0.2,    0.0,   -0.1,   -0.3,   -0.4,    0.1,    0.1,    0.3,   -0.0,   -0.1,   -0.8,   -0.9,   -1.0,    0.3,    0.6,    0.5,   -0.3,    0.2,    0.9,    0.4,   -0.1,    0.1,   -0.9,   -0.5,   -0.9,   -1.4,   -1.9,   -2.4,   -2.0,   -1.2,   -1.3,   -1.8,   -0.7,    0.2,    0.4,    0.4,    0.7,    0.3,    0.0,   -0.2,   -0.5,   -0.3,   -0.2,   -1.2,   -0.9,   -0.6,   -2.6,   -2.3,   -1.9,    0.1,   -1.7,   -1.4,   -1.1,  999.0,   -3.3,   -2.4,   -3.3,   -3.3,  999.0,  999.0,   -0.8,    0.3,    0.1,  999.0,   -0.0,  999.0,  999.0,  999.0,  999.0,  999.0,  999.0,  999.0,  999.0,   -7.7,  999.0,  999.0,  999.0,  -16.2,  999.0,  999.0,  999.0,  999.0,  999.0,  999.0,  -16.6,  -19.6,  -20.4,  999.0,  999.0,  999.0,  999.0,  999.0,  999.0,  999.0,  -13.3,  999.0,  999.0,  999.0
2015/05/11 15:20,  999.0,   -2.9,   -2.1,   -2.0,   -1.6,   -1.2,   -0.2,    1.0,    1.4,    1.2,    1.1,    0.8,    1.0,    0.0,   -1.7,   -1.8,   -1.6,   -1.2,   -2.1,   -1.8,   -1.5,   -1.7,    0.0,    0.2,    0.3,    0.7,    1.3,    0.5,    0.2,    0.5,   -0.5,   -1.9,   -1.5,   -2.1,   -1.4,   -0.5,   -0.3,   -0.5,   -0.7,   -0.6,   -0.2,    0.5,    0.4,    0.3,    0.0,   -0.6,   -1.4,   -1.2,   -1.4,   -2.4,   -2.7,   -1.3,   -0.9,   -1.2,   -0.3,    0.2,    0.3,    0.7,    0.9,    0.9,    1.1,    0.3,   -0.3,    0.3,   -0.1,    0.0,   -0.6,   -0.4,   -2.7,   -2.2,   -0.9,  999.0,   -1.8,   -1.3,   -1.6,   -0.9,   -1.2,   -1.0,   -2.0,   -2.3,  999.0,  999.0,  999.0,   -0.9,   -0.0,  999.0,    0.7,  999.0,   -0.1,  999.0,  999.0,  999.0,  999.0,   -2.5,  999.0,  999.0,  999.0,  -15.4,  999.0,  -16.0,  999.0,  999.0,  999.0,  -20.4,  999.0,  999.0,  -16.6,  -19.5,  -20.2,  999.0,  999.0,  999.0,  999.0,  999.0,  999.0,  -14.5,  -13.1,  999.0,  999.0,  999.0
2015/05/11 15:30,  999.0,   -2.2,   -2.4,   -1.3,   -1.2,   -0.6,  999.0,    0.7,    1.6,    1.2,    1.2,    1.4,    0.8,    0.4,   -1.4,   -1.5,   -1.4,   -1.3,   -2.1,   -2.1,   -1.6,   -1.2,   -0.2,    0.4,    0.5,    1.3,    1.6,    0.2,    0.4,    0.6,   -1.0,   -1.8,   -1.6,   -2.2,   -1.2,   -0.4,   -0.4,   -0.1,   -0.3,    0.2,    0.6,    0.6,    0.4,    0.6,    0.3,   -0.3,   -1.0,   -0.8,   -1.1,   -1.9,   -2.2,   -1.5,   -1.5,   -1.5,   -0.7,   -0.6,   -0.3,    0.8,    1.2,    1.3,    1.6,    2.0,    0.0,    0.0,   -0.5,   -0.1,   -0.7,   -0.1,   -1.8,   -1.9,  999.0,  999.0,   -0.3,   -1.4,   -0.9,   -1.2,   -1.4,  999.0,   -1.9,  999.0,  999.0,  999.0,  999.0,  999.0,   -0.2,  999.0,  999.0,  999.0,  999.0,  999.0,  999.0,  999.0,  999.0,  999.0,  999.0,  999.0,  999.0,  999.0,  999.0,  999.0,  999.0,  999.0,  999.0,  999.0,  999.0,  999.0,  -17.0,  -20.0,  -20.3,  999.0,  999.0,  999.0,  999.0,  999.0,  999.0,  999.0,  999.0,  999.0,  999.0,  999.0
2015/05/11 15:40,  999.0,   -2.0,   -1.2,   -0.7,   -0.9,   -0.1,    0.1,    0.4,    1.8,    1.2,    1.3,    1.3,    0.5,    0.1,   -0.8,   -1.3,   -1.0,   -1.4,   -2.4,   -1.9,   -1.7,   -1.4,   -0.1,    0.5,    0.5,    1.0,    1.4,    0.8,    0.2,    0.0,   -0.7,   -0.8,   -0.5,   -0.6,   -0.6,   -0.1,   -0.7,   -0.8,   -0.4,   -0.0,    0.3,    0.1,    0.1,    0.2,   -0.0,   -0.4,   -0.9,   -0.8,   -1.0,   -1.5,   -1.2,   -0.8,   -0.8,   -1.0,   -0.0,    0.0,    0.0,    0.2,    0.7,   -0.1,    0.4,   -0.2,   -0.5,   -0.0,   -1.2,   -0.7,   -1.0,   -0.5,   -2.2,   -2.1,  999.0,  999.0,   -0.3,   -0.9,   -1.0,   -1.1,   -1.3,   -3.0,   -2.3,   -0.7,  999.0,  999.0,   -2.8,   -1.1,   -0.2,    2.9,  999.0,    0.9,  999.0,  999.0,  999.0,  999.0,  999.0,  999.0,  999.0,  999.0,  999.0,  999.0,  999.0,  999.0,  999.0,  999.0,  999.0,  999.0,  999.0,  999.0,  -19.0,  -21.4,  999.0,  999.0,  999.0,  999.0,  999.0,  999.0,  999.0,  999.0,  999.0,  999.0,  999.0,  999.0
2015/05/11 15:50,  999.0,   -3.3,   -1.8,   -1.2,   -0.1,   -0.1,   -0.6,    0.1,    0.8,    0.8,    1.1,    1.5,    0.3,   -0.7,   -0.5,   -1.1,   -1.8,   -1.5,   -2.3,   -2.1,   -1.7,   -0.9,    0.1,    0.1,   -0.0,    0.5,    0.8,    0.8,    0.1,   -0.9,   -2.6,   -2.3,   -0.9,   -0.6,   -1.1,   -0.9,   -0.3,   -1.2,   -0.4,   -0.2,   -0.4,   -0.5,   -0.7,   -0.8,   -0.4,   -0.3,   -0.1,   -0.6,   -0.5,   -0.8,   -0.2,   -0.2,   -0.6,   -0.7,    0.8,    0.9,    0.4,    0.3,    0.6,   -0.7,   -0.9,   -1.4,   -1.6,   -0.8,   -2.2,   -1.7,   -1.7,   -2.3,   -3.6,   -2.6,  999.0,  999.0,  999.0,  999.0,   -0.9,   -1.7,    0.1,   -3.4,  999.0,   -0.6,  999.0,  999.0,  999.0,  999.0,   -0.6,  999.0,  999.0,  999.0,  999.0,  999.0,  999.0,  999.0,  999.0,  999.0,  999.0,  999.0,  999.0,  999.0,  999.0,  999.0,  999.0,  999.0,  999.0,  999.0,  999.0,  999.0,  999.0,  999.0,  999.0,  999.0,  999.0,  999.0,  999.0,  999.0,  999.0,  999.0,  999.0,  999.0,  999.0,  999.0
2015/05/11 16:00,   -0.1,   -2.4,   -2.4,   -1.6,   -1.0,   -0.1,   -0.5,   -0.2,    0.7,    1.1,    0.9,    0.5,   -0.4,   -2.0,   -1.2,   -1.3,   -2.0,   -1.8,   -1.5,   -1.5,   -1.1,   -1.6,    0.3,    0.3,    0.2,    0.2,    0.0,   -0.2,   -0.9,   -2.1,   -3.5,   -2.8,   -1.5,   -1.1,   -1.5,   -1.2,   -0.2,   -0.9,   -0.6,   -0.5,   -1.0,   -1.1,   -1.9,   -1.4,   -1.0,   -1.4,   -0.4,   -0.5,   -0.3,   -0.4,    1.2,    1.6,    0.9,    0.5,    1.4,    1.8,    1.2,    1.2,    0.4,   -0.8,   -0.3,   -1.2,   -1.4,   -0.9,   -2.2,   -1.7,   -1.0,   -4.1,   -4.2,   -2.8,  999.0,  999.0,  999.0,  999.0,  999.0,  999.0,    0.0,  999.0,  999.0,   -0.5,  999.0,  999.0,  999.0,    0.3,   -0.6,  999.0,  999.0,  999.0,  999.0,  999.0,  999.0,  999.0,  999.0,  999.0,  999.0,  -11.2,  999.0,  999.0,  999.0,  999.0,  999.0,  999.0,  999.0,  999.0,  999.0,  999.0,  999.0,  999.0,  999.0,  999.0,  999.0,  999.0,  999.0,  999.0,  999.0,  999.0,  999.0,  999.0,  999.0,  999.0
2015/05/11 16:10,    0.0,   -0.8,    0.6,    2.1,    3.2,    2.1,   -1.5,   -0.8,   -0.0,   -0.5,   -2.9,   -1.3,   -2.0,   -2.5,   -2.9,   -3.5,   -3.6,   -2.9,   -2.3,   -2.0,   -2.4,   -1.9,    0.3,    0.7,    0.9,    1.3,    0.9,    1.7,    0.3,   -1.6,   -3.2,   -3.3,   -2.0,   -1.5,   -1.7,   -0.1,    0.8,    0.3,   -0.7,   -0.8,   -1.6,   -1.8,   -1.9,   -2.3,   -1.1,   -1.7,   -1.1,    1.0,   -0.3,    0.1,    1.4,    2.2,    1.9,    1.3,    1.8,    1.8,    1.4,    1.0,   -0.4,   -0.7,    0.2,   -0.2,   -0.3,   -0.5,  999.0,   -1.1,    0.1,   -0.9,  999.0,  999.0,    0.2,    0.1,    0.1,   -0.3,  999.0,   -0.2,    1.0,  999.0,  999.0,  999.0,  999.0,  999.0,    0.3,    0.7,    0.3,  999.0,  999.0,  999.0,   -0.3,  999.0,  999.0,  999.0,  999.0,  999.0,  999.0,  -10.3,  999.0,  999.0,  999.0,  999.0,  999.0,  999.0,  999.0,  999.0,  999.0,  999.0,  -19.4,  -22.1,  999.0,  999.0,  999.0,  999.0,  999.0,  999.0,  999.0,  999.0,  999.0,  999.0,  999.0,  999.0
2015/05/11 16:20,    0.2,   -0.3,   -0.2,    1.8,    4.0,    1.4,   -0.6,   -1.2,   -2.2,   -3.0,   -2.2,   -1.3,   -1.5,   -1.0,   -2.6,   -3.5,   -3.6,   -4.1,   -2.4,   -3.9,   -2.0,   -1.1,   -0.4,   -1.6,   -3.0,   -1.5,   -2.5,   -2.7,   -4.0,   -4.1,   -4.2,   -4.8,   -5.0,   -3.4,   -3.4,   -3.3,   -1.7,   -1.3,   -1.3,   -1.8,   -2.5,   -1.9,   -2.6,   -2.6,   -2.0,   -1.6,   -1.0,   -0.1,   -1.6,   -0.8,   -0.5,   -1.5,   -0.7,    0.7,    1.7,    2.7,    2.0,    0.7,   -0.6,   -0.1,   -0.2,    0.5,    1.0,   -0.2,   -0.8,   -1.1,    0.2,   -0.5,    0.2,   -3.3,   -0.6,    0.1,   -1.3,   -2.7,   -2.2,   -0.4,    0.3,    0.7,   -1.5,  999.0,  999.0,  999.0,  999.0,   -0.0,   -1.1,  999.0,  999.0,   -1.9,   -0.7,  999.0,  999.0,  999.0,  999.0,  999.0,  999.0,   -5.6,  999.0,  999.0,  999.0,  999.0,  999.0,  999.0,  -16.9,  -20.7,  -17.3,  -16.5,  -18.0,  -21.8,  -23.4,  999.0,  999.0,  999.0,  999.0,  999.0,  999.0,  999.0,  999.0,  999.0,  999.0,  999.0
2015/05/11 16:30,    0.9,    1.1,   -0.7,    1.9,   -0.4,   -0.2,    1.9,   -0.5,   -0.1,    1.1,    1.9,    0.6,   -0.2,    0.6,    0.1,   -1.2,    0.5,    0.3,   -0.6,   -3.4,   -2.1,   -0.7,   -0.0,   -2.8,   -3.8,   -1.2,   -1.3,   -0.4,   -2.5,   -3.4,   -4.2,   -6.6,   -6.1,   -7.6,   -6.7,   -5.2,   -5.4,   -4.1,   -2.1,   -1.8,   -1.1,   -1.0,   -2.0,   -2.3,   -2.7,   -2.0,   -1.4,    0.5,   -3.4,   -4.7,   -2.3,   -2.7,   -1.4,   -0.1,    1.7,    2.4,    2.3,    1.4,    0.1,    0.1,    0.5,   -0.1,    0.7,    0.5,   -2.0,   -1.0,   -0.7,   -1.7,    1.8,    1.8,   -0.5,   -0.5,   -4.2,   -1.9,   -1.7,   -0.4,    0.1,   -1.8,   -3.3,   -5.8,   -4.2,   -3.4,   -0.4,   -0.9,   -0.6,  999.0,   -2.0,   -0.9,   -2.4,  999.0,  999.0,   -8.7,   -9.8,   -8.9,  999.0,  999.0,  999.0,  -11.7,  999.0,  999.0,  999.0,  999.0,  -17.2,  -20.8,  999.0,  -22.8,  -21.4,  -23.4,  -24.6,  999.0,  999.0,  999.0,  999.0,  -13.9,  -16.4,  999.0,  999.0,  999.0,  999.0,  999.0
2015/05/11 16:40,  999.0,    1.4,    0.3,    1.2,    1.4,    1.7,    2.7,    1.5,    1.9,    2.8,    2.5,    1.3,    1.4,    1.3,    0.7,   -0.6,    1.9,    1.0,    0.3,   -1.3,   -1.7,    0.4,    0.8,   -1.5,   -0.4,    3.2,    1.2,    4.2,    2.4,   -0.2,  999.0,   -3.3,   -5.2,   -6.1,   -6.8,   -5.3,   -4.8,   -2.4,   -1.4,   -0.5,    0.2,    0.3,   -1.0,   -2.2,   -3.1,   -3.8,   -2.7,   -3.8,   -4.0,   -3.8,   -3.1,   -3.0,   -2.3,   -1.6,   -2.0,   -1.4,   -1.4,   -2.3,   -3.0,   -2.3,   -1.3,   -0.9,   -0.2,   -2.4,   -6.6,   -3.1,   -3.0,   -4.4,  999.0,    1.4,   -0.2,  999.0,  999.0,   -1.5,   -2.5,   -0.7,   -2.2,   -2.0,   -0.5,   -1.4,   -4.8,   -1.8,   -0.6,    1.2,   -0.6,   -0.3,   -2.5,   -0.7,   -2.4,  999.0,  999.0,  999.0,  -10.2,   -9.6,  999.0,  999.0,  999.0,  999.0,  999.0,  999.0,  999.0,  999.0,  999.0,  999.0,  999.0,  999.0,  -23.3,  -24.8,  999.0,  999.0,  999.0,  999.0,  999.0,  -14.0,  -16.0,  -17.0,  999.0,  999.0,  999.0,  999.0
